Darstellungsparameter: Aktuell verwendete Einstellungen:
Skalierung der Graphiken ... ?
xyx+y,   Skalierungsfaktor:      Skalierung: Modus: x, Faktor: 1
Darstellungszeitraum ... ?
Vom - - bis: - -   Zeitraum: 21.07.2016 - 27.07.2016
Min/Max/Avg-Anzeige ... ?
Zeige MMA aktuell
Zeige MMA Monat
Zeige MMA alles
Zeige --A aktuell
Zeige --A Monat
Zeige --A alles
Keine MMA-Anzeige
MMA:
Keine MMA-Graphiken
MMA-Basis: 21.07.2016 - 27.07.2016
Quicknavigation für Darstellung... ?
Tage:      1T, 2T, 3T, 5T -1T -2T -3T -5T +1T +2T +3T +5T
Wochen: 1W, 2W, 3W -1W -2W -3W +1W +2W +3W
Monate: 1M, 3M, 6M -1M -3M -6M +1M +3M +6M
Jahre:    1J, 3J, 5J, 10J -1J -3J -5J -10J +1J +3J +5J +10J
Nutze für die Darstellung ... ?
Originaldaten oder Mittelwerte auf ...
Stundenbasis Tagesbasis Wochenbasis
Monatsbasis Jahresbasis      Datenbasis: Original-Daten
Darstellen als:
Statistik (Auto) Statistik J:M      Darstellung:
Zur Graphik,    zurück zur Übersicht aller Sensoren.
 
Tabellarische Datenbersicht: ?
 
Sensor: Nr:Datum:Temp:Feuchte:Taupunkt:
Aussen-T/F 1 21-07-2016 00:00:00 23.7 C 72 % 18.35 C
2 21-07-2016 00:05:00 23.8 C 71 % 18.22 C
3 21-07-2016 00:10:00 23.9 C 73 % 18.76 C
4 21-07-2016 00:15:00 23.8 C 74 % 18.89 C
5 21-07-2016 00:20:00 23.7 C 74 % 18.79 C
6 21-07-2016 00:25:00 23.6 C 74 % 18.69 C
7 21-07-2016 00:30:00 23.4 C 75 % 18.71 C
8 21-07-2016 00:35:00 23.4 C 74 % 18.5 C
9 21-07-2016 00:40:00 23.3 C 75 % 18.62 C
10 21-07-2016 00:45:00 23.2 C 74 % 18.31 C
11 21-07-2016 00:50:00 23.1 C 76 % 18.64 C
12 21-07-2016 00:55:00 23.1 C 76 % 18.64 C
13 21-07-2016 01:00:00 23 C 76 % 18.54 C
14 21-07-2016 01:05:00 23 C 77 % 18.75 C
15 21-07-2016 01:10:00 23.1 C 78 % 19.05 C
16 21-07-2016 01:15:00 23 C 78 % 18.96 C
17 21-07-2016 01:20:00 22.9 C 77 % 18.65 C
18 21-07-2016 01:25:00 22.8 C 77 % 18.56 C
19 21-07-2016 01:30:00 22.8 C 78 % 18.76 C
20 21-07-2016 01:35:00 22.7 C 77 % 18.46 C
21 21-07-2016 01:40:00 22.7 C 77 % 18.46 C
22 21-07-2016 01:45:00 22.6 C 78 % 18.57 C
23 21-07-2016 01:50:00 22.6 C 77 % 18.36 C
24 21-07-2016 01:55:00 22.4 C 77 % 18.17 C
25 21-07-2016 02:00:00 22.4 C 78 % 18.37 C
Sensor: Nr:Datum:Temp:Feuchte:Taupunkt:
Aussen-T/F 26 21-07-2016 02:05:00 22.4 C 78 % 18.37 C
27 21-07-2016 02:10:00 22.4 C 78 % 18.37 C
28 21-07-2016 02:15:00 22.3 C 77 % 18.07 C
29 21-07-2016 02:20:00 22.3 C 78 % 18.28 C
30 21-07-2016 02:25:00 22.3 C 77 % 18.07 C
31 21-07-2016 02:30:00 22.4 C 78 % 18.37 C
32 21-07-2016 02:35:00 22.4 C 77 % 18.17 C
33 21-07-2016 02:40:00 22.5 C 79 % 18.67 C
34 21-07-2016 02:45:00 22.5 C 78 % 18.47 C
35 21-07-2016 02:50:00 22.4 C 78 % 18.37 C
36 21-07-2016 02:55:00 22.4 C 78 % 18.37 C
37 21-07-2016 03:00:00 22.3 C 77 % 18.07 C
38 21-07-2016 03:05:00 22.3 C 77 % 18.07 C
39 21-07-2016 03:10:00 22.2 C 78 % 18.18 C
40 21-07-2016 03:15:00 22.2 C 79 % 18.38 C
41 21-07-2016 03:20:00 22.2 C 80 % 18.58 C
42 21-07-2016 03:25:00 22.2 C 80 % 18.58 C
43 21-07-2016 03:30:00 22.3 C 77 % 18.07 C
44 21-07-2016 03:35:00 22.6 C 76 % 18.15 C
45 21-07-2016 03:40:00 22.8 C 75 % 18.14 C
46 21-07-2016 03:45:00 22.9 C 75 % 18.23 C
47 21-07-2016 03:50:00 23 C 75 % 18.33 C
48 21-07-2016 03:55:00 23 C 76 % 18.54 C
49 21-07-2016 04:00:00 22.9 C 76 % 18.44 C
50 21-07-2016 04:05:00 22.8 C 76 % 18.35 C
Sensor: Nr:Datum:Temp:Feuchte:Taupunkt:
Aussen-T/F 51 21-07-2016 04:10:00 22.8 C 76 % 18.35 C
52 21-07-2016 04:15:00 22.8 C 76 % 18.35 C
53 21-07-2016 04:20:00 22.8 C 76 % 18.35 C
54 21-07-2016 04:25:00 22.8 C 77 % 18.56 C
55 21-07-2016 04:30:00 22.7 C 77 % 18.46 C
56 21-07-2016 04:35:00 22.6 C 78 % 18.57 C
57 21-07-2016 04:40:00 22.5 C 78 % 18.47 C
58 21-07-2016 04:45:00 22.4 C 78 % 18.37 C
59 21-07-2016 04:50:00 22.3 C 78 % 18.28 C
60 21-07-2016 04:55:00 22.3 C 77 % 18.07 C
61 21-07-2016 05:00:00 22.3 C 77 % 18.07 C
62 21-07-2016 05:05:00 22.3 C 77 % 18.07 C
63 21-07-2016 05:10:00 22.3 C 77 % 18.07 C
64 21-07-2016 05:15:00 22.2 C 78 % 18.18 C
65 21-07-2016 05:20:00 22.1 C 78 % 18.08 C
66 21-07-2016 05:25:00 22 C 79 % 18.19 C
67 21-07-2016 05:30:00 21.8 C 81 % 18.39 C
68 21-07-2016 05:35:00 21.6 C 81 % 18.2 C
69 21-07-2016 05:40:00 21.4 C 82 % 18.2 C
70 21-07-2016 05:45:00 21.2 C 82 % 18 C
71 21-07-2016 05:50:00 21.1 C 83 % 18.1 C
72 21-07-2016 05:55:00 20.9 C 83 % 17.9 C
73 21-07-2016 06:00:00 20.8 C 84 % 18 C
74 21-07-2016 06:05:00 20.8 C 83 % 17.81 C
75 21-07-2016 06:10:00 20.7 C 84 % 17.9 C
Sensor: Nr:Datum:Temp:Feuchte:Taupunkt:
Aussen-T/F 76 21-07-2016 06:15:00 20.7 C 84 % 17.9 C
77 21-07-2016 06:20:00 20.6 C 84 % 17.8 C
78 21-07-2016 06:25:00 20.6 C 84 % 17.8 C
79 21-07-2016 06:30:00 20.6 C 84 % 17.8 C
80 21-07-2016 06:35:00 20.5 C 85 % 17.89 C
81 21-07-2016 06:40:00 20.4 C 85 % 17.79 C
82 21-07-2016 06:45:00 20.4 C 86 % 17.98 C
83 21-07-2016 06:50:00 20.3 C 86 % 17.88 C
84 21-07-2016 06:55:00 20.3 C 86 % 17.88 C
85 21-07-2016 07:00:00 20.2 C 86 % 17.78 C
86 21-07-2016 07:05:00 20.2 C 86 % 17.78 C
87 21-07-2016 07:10:00 20.1 C 85 % 17.5 C
88 21-07-2016 07:15:00 20.1 C 84 % 17.31 C
89 21-07-2016 07:20:00 20.2 C 85 % 17.6 C
90 21-07-2016 07:25:00 20.2 C 85 % 17.6 C
91 21-07-2016 07:30:00 20.2 C 86 % 17.78 C
92 21-07-2016 07:35:00 20.2 C 86 % 17.78 C
93 21-07-2016 07:40:00 20.1 C 87 % 17.87 C
94 21-07-2016 07:45:00 19.9 C 88 % 17.85 C
95 21-07-2016 07:50:00 19.8 C 88 % 17.75 C
96 21-07-2016 07:55:00 19.7 C 89 % 17.84 C
97 21-07-2016 08:00:00 19.7 C 89 % 17.84 C
98 21-07-2016 08:05:00 19.6 C 89 % 17.74 C
99 21-07-2016 08:10:00 19.5 C 90 % 17.82 C
100 21-07-2016 08:15:00 19.5 C 91 % 17.99 C
Sensor: Nr:Datum:Temp:Feuchte:Taupunkt:
Aussen-T/F 101 21-07-2016 08:20:00 19.4 C 91 % 17.89 C
102 21-07-2016 08:25:00 19.2 C 92 % 17.87 C
103 21-07-2016 08:30:00 19.1 C 92 % 17.77 C
104 21-07-2016 08:35:00 19.1 C 92 % 17.77 C
105 21-07-2016 08:40:00 19.1 C 93 % 17.94 C
106 21-07-2016 08:45:00 19 C 93 % 17.84 C
107 21-07-2016 08:50:00 19.1 C 93 % 17.94 C
108 21-07-2016 08:55:00 19.1 C 94 % 18.11 C
109 21-07-2016 09:00:00 19.1 C 94 % 18.11 C
110 21-07-2016 09:05:00 19 C 94 % 18.01 C
111 21-07-2016 09:10:00 19.1 C 94 % 18.11 C
112 21-07-2016 09:15:00 19.1 C 94 % 18.11 C
113 21-07-2016 09:20:00 19.2 C 94 % 18.21 C
114 21-07-2016 09:25:00 19.2 C 94 % 18.21 C
115 21-07-2016 09:30:00 19.2 C 94 % 18.21 C
116 21-07-2016 09:35:00 19.3 C 95 % 18.48 C
117 21-07-2016 09:40:00 19.3 C 95 % 18.48 C
118 21-07-2016 09:45:00 19.3 C 95 % 18.48 C
119 21-07-2016 09:50:00 19.4 C 95 % 18.58 C
120 21-07-2016 09:55:00 19.4 C 95 % 18.58 C
121 21-07-2016 10:00:00 19.5 C 95 % 18.68 C
122 21-07-2016 10:05:00 19.6 C 95 % 18.78 C
123 21-07-2016 10:10:00 19.6 C 95 % 18.78 C
124 21-07-2016 10:15:00 19.7 C 95 % 18.88 C
125 21-07-2016 10:20:00 19.8 C 95 % 18.98 C
Sensor: Nr:Datum:Temp:Feuchte:Taupunkt:
Aussen-T/F 126 21-07-2016 10:25:00 19.8 C 95 % 18.98 C
127 21-07-2016 10:30:00 19.9 C 95 % 19.07 C
128 21-07-2016 10:35:00 19.9 C 95 % 19.07 C
129 21-07-2016 10:40:00 20 C 95 % 19.17 C
130 21-07-2016 10:45:00 20.1 C 95 % 19.27 C
131 21-07-2016 10:50:00 20.1 C 95 % 19.27 C
132 21-07-2016 10:55:00 20.2 C 95 % 19.37 C
133 21-07-2016 11:00:00 20.2 C 95 % 19.37 C
134 21-07-2016 11:05:00 20.2 C 95 % 19.37 C
135 21-07-2016 11:10:00 20.3 C 95 % 19.47 C
136 21-07-2016 11:15:00 20.4 C 95 % 19.57 C
137 21-07-2016 11:20:00 20.5 C 95 % 19.67 C
138 21-07-2016 11:25:00 20.6 C 95 % 19.77 C
139 21-07-2016 11:30:00 20.7 C 95 % 19.87 C
140 21-07-2016 11:35:00 20.9 C 95 % 20.07 C
141 21-07-2016 11:40:00 21 C 95 % 20.17 C
142 21-07-2016 11:45:00 21.1 C 94 % 20.1 C
143 21-07-2016 11:50:00 21.2 C 94 % 20.19 C
144 21-07-2016 11:55:00 21.2 C 93 % 20.02 C
145 21-07-2016 12:00:00 21.3 C 93 % 20.12 C
146 21-07-2016 12:05:00 21.4 C 93 % 20.22 C
147 21-07-2016 12:10:00 21.6 C 91 % 20.07 C
148 21-07-2016 12:15:00 21.8 C 91 % 20.26 C
149 21-07-2016 12:20:00 21.9 C 90 % 20.18 C
150 21-07-2016 12:25:00 22.3 C 91 % 20.76 C
Sensor: Nr:Datum:Temp:Feuchte:Taupunkt:
Aussen-T/F 151 21-07-2016 12:30:00 22.6 C 92 % 21.23 C
152 21-07-2016 12:35:00 22.6 C 89 % 20.69 C
153 21-07-2016 12:40:00 22.7 C 91 % 21.15 C
154 21-07-2016 12:45:00 22.9 C 91 % 21.35 C
155 21-07-2016 12:50:00 23 C 91 % 21.45 C
156 21-07-2016 12:55:00 22.8 C 87 % 20.52 C
157 21-07-2016 13:00:00 22.9 C 89 % 20.99 C
158 21-07-2016 13:05:00 22.9 C 88 % 20.81 C
159 21-07-2016 13:10:00 23 C 87 % 20.72 C
160 21-07-2016 13:15:00 23.1 C 86 % 20.63 C
161 21-07-2016 13:20:00 23.2 C 83 % 20.15 C
162 21-07-2016 13:25:00 23.2 C 81 % 19.76 C
163 21-07-2016 13:30:00 23.4 C 82 % 20.15 C
164 21-07-2016 13:35:00 23.4 C 80 % 19.75 C
165 21-07-2016 13:40:00 23.6 C 80 % 19.95 C
166 21-07-2016 13:45:00 23.7 C 82 % 20.44 C
167 21-07-2016 13:50:00 23.8 C 80 % 20.14 C
168 21-07-2016 13:55:00 23.9 C 82 % 20.64 C
169 21-07-2016 14:00:00 23.9 C 79 % 20.03 C
170 21-07-2016 14:05:00 23.9 C 77 % 19.62 C
171 21-07-2016 14:10:00 24.3 C 79 % 20.42 C
172 21-07-2016 14:15:00 24.5 C 76 % 19.99 C
173 21-07-2016 14:20:00 24.7 C 76 % 20.18 C
174 21-07-2016 14:25:00 24.9 C 76 % 20.38 C
175 21-07-2016 14:30:00 25 C 75 % 20.26 C
Sensor: Nr:Datum:Temp:Feuchte:Taupunkt:
Aussen-T/F 176 21-07-2016 14:35:00 25.2 C 72 % 19.79 C
177 21-07-2016 14:40:00 25.4 C 74 % 20.43 C
178 21-07-2016 14:45:00 25.6 C 75 % 20.84 C
179 21-07-2016 14:50:00 25.6 C 72 % 20.17 C
180 21-07-2016 14:55:00 25.7 C 72 % 20.27 C
181 21-07-2016 15:00:00 25.8 C 76 % 21.24 C
182 21-07-2016 15:05:00 25.9 C 71 % 20.24 C
183 21-07-2016 15:10:00 26.3 C 73 % 21.07 C
184 21-07-2016 15:15:00 26.5 C 71 % 20.81 C
185 21-07-2016 15:20:00 26.6 C 70 % 20.67 C
186 21-07-2016 15:25:00 26.5 C 78 % 22.35 C
187 21-07-2016 15:30:00 26.3 C 78 % 22.15 C
188 21-07-2016 15:35:00 25.9 C 79 % 21.97 C
189 21-07-2016 15:40:00 25.6 C 81 % 22.09 C
190 21-07-2016 15:45:00 25.2 C 82 % 21.91 C
191 21-07-2016 15:50:00 24.9 C 82 % 21.61 C
192 21-07-2016 15:55:00 24.6 C 84 % 21.71 C
193 21-07-2016 16:00:00 24.4 C 85 % 21.71 C
194 21-07-2016 16:05:00 24.1 C 85 % 21.42 C
195 21-07-2016 16:10:00 23.9 C 86 % 21.41 C
196 21-07-2016 16:15:00 23.6 C 86 % 21.12 C
197 21-07-2016 16:20:00 23.3 C 78 % 19.25 C
198 21-07-2016 16:25:00 23.3 C 81 % 19.85 C
199 21-07-2016 16:30:00 23.1 C 78 % 19.05 C
200 21-07-2016 16:35:00 22.8 C 80 % 19.17 C
Sensor: Nr:Datum:Temp:Feuchte:Taupunkt:
Aussen-T/F 201 21-07-2016 16:40:00 22.6 C 83 % 19.56 C
202 21-07-2016 16:45:00 22.3 C 85 % 19.65 C
203 21-07-2016 16:50:00 22 C 86 % 19.55 C
204 21-07-2016 16:55:00 21.8 C 87 % 19.54 C
205 21-07-2016 17:00:00 21.6 C 88 % 19.53 C
206 21-07-2016 17:05:00 21.3 C 89 % 19.41 C
207 21-07-2016 17:10:00 21.2 C 90 % 19.49 C
208 21-07-2016 17:15:00 21 C 90 % 19.3 C
209 21-07-2016 17:20:00 20.9 C 91 % 19.37 C
210 21-07-2016 17:25:00 20.8 C 91 % 19.28 C
211 21-07-2016 17:30:00 20.7 C 91 % 19.18 C
212 21-07-2016 17:35:00 20.5 C 91 % 18.98 C
213 21-07-2016 17:40:00 20.3 C 91 % 18.78 C
214 21-07-2016 17:45:00 20.2 C 91 % 18.68 C
215 21-07-2016 17:50:00 20.1 C 92 % 18.76 C
216 21-07-2016 17:55:00 20 C 92 % 18.66 C
217 21-07-2016 18:00:00 19.9 C 92 % 18.56 C
218 21-07-2016 18:05:00 19.8 C 93 % 18.63 C
219 21-07-2016 18:10:00 19.8 C 93 % 18.63 C
220 21-07-2016 18:15:00 19.8 C 93 % 18.63 C
221 21-07-2016 18:20:00 19.8 C 94 % 18.81 C
222 21-07-2016 18:25:00 19.8 C 94 % 18.81 C
223 21-07-2016 18:30:00 19.8 C 94 % 18.81 C
224 21-07-2016 18:35:00 19.7 C 94 % 18.71 C
225 21-07-2016 18:40:00 19.7 C 94 % 18.71 C
Sensor: Nr:Datum:Temp:Feuchte:Taupunkt:
Aussen-T/F 226 21-07-2016 18:45:00 19.7 C 94 % 18.71 C
227 21-07-2016 18:50:00 19.7 C 94 % 18.71 C
228 21-07-2016 18:55:00 19.7 C 94 % 18.71 C
229 21-07-2016 19:00:00 19.7 C 94 % 18.71 C
230 21-07-2016 19:05:00 19.6 C 94 % 18.61 C
231 21-07-2016 19:10:00 19.6 C 94 % 18.61 C
232 21-07-2016 19:15:00 19.6 C 94 % 18.61 C
233 21-07-2016 19:20:00 19.6 C 94 % 18.61 C
234 21-07-2016 19:25:00 19.6 C 95 % 18.78 C
235 21-07-2016 19:30:00 19.6 C 95 % 18.78 C
236 21-07-2016 19:35:00 19.6 C 95 % 18.78 C
237 21-07-2016 19:40:00 19.6 C 95 % 18.78 C
238 21-07-2016 19:45:00 19.6 C 95 % 18.78 C
239 21-07-2016 19:50:00 19.6 C 95 % 18.78 C
240 21-07-2016 19:55:00 19.5 C 95 % 18.68 C
241 21-07-2016 20:00:00 19.4 C 95 % 18.58 C
242 21-07-2016 20:05:00 19.2 C 94 % 18.21 C
243 21-07-2016 20:10:00 19.1 C 94 % 18.11 C
244 21-07-2016 20:15:00 19 C 95 % 18.18 C
245 21-07-2016 20:20:00 18.9 C 95 % 18.08 C
246 21-07-2016 20:25:00 18.9 C 95 % 18.08 C
247 21-07-2016 20:30:00 18.9 C 95 % 18.08 C
248 21-07-2016 20:35:00 19 C 95 % 18.18 C
249 21-07-2016 20:40:00 18.9 C 95 % 18.08 C
250 21-07-2016 20:45:00 18.9 C 95 % 18.08 C
Sensor: Nr:Datum:Temp:Feuchte:Taupunkt:
Aussen-T/F 251 21-07-2016 20:50:00 18.9 C 95 % 18.08 C
252 21-07-2016 20:55:00 19 C 95 % 18.18 C
253 21-07-2016 21:00:00 19 C 96 % 18.35 C
254 21-07-2016 21:05:00 19.1 C 96 % 18.45 C
255 21-07-2016 21:10:00 19 C 95 % 18.18 C
256 21-07-2016 21:15:00 19 C 95 % 18.18 C
257 21-07-2016 21:20:00 18.9 C 95 % 18.08 C
258 21-07-2016 21:25:00 18.9 C 95 % 18.08 C
259 21-07-2016 21:30:00 18.9 C 95 % 18.08 C
260 21-07-2016 21:35:00 18.9 C 95 % 18.08 C
261 21-07-2016 21:40:00 18.9 C 95 % 18.08 C
262 21-07-2016 21:45:00 18.8 C 95 % 17.98 C
263 21-07-2016 21:50:00 18.8 C 95 % 17.98 C
264 21-07-2016 21:55:00 18.8 C 96 % 18.15 C
265 21-07-2016 22:00:00 18.7 C 96 % 18.05 C
266 21-07-2016 22:05:00 18.7 C 96 % 18.05 C
267 21-07-2016 22:10:00 18.7 C 96 % 18.05 C
268 21-07-2016 22:15:00 18.7 C 95 % 17.88 C
269 21-07-2016 22:20:00 18.6 C 95 % 17.78 C
270 21-07-2016 22:25:00 18.6 C 96 % 17.95 C
271 21-07-2016 22:30:00 18.7 C 96 % 18.05 C
272 21-07-2016 22:35:00 18.6 C 96 % 17.95 C
273 21-07-2016 22:40:00 18.6 C 96 % 17.95 C
274 21-07-2016 22:45:00 18.6 C 96 % 17.95 C
275 21-07-2016 22:50:00 18.6 C 96 % 17.95 C
Sensor: Nr:Datum:Temp:Feuchte:Taupunkt:
Aussen-T/F 276 21-07-2016 22:55:00 18.6 C 96 % 17.95 C
277 21-07-2016 23:00:00 18.5 C 96 % 17.85 C
278 21-07-2016 23:05:00 18.5 C 96 % 17.85 C
279 21-07-2016 23:10:00 18.4 C 96 % 17.75 C
280 21-07-2016 23:15:00 18.4 C 96 % 17.75 C
281 21-07-2016 23:20:00 18.4 C 96 % 17.75 C
282 21-07-2016 23:25:00 18.4 C 96 % 17.75 C
283 21-07-2016 23:30:00 18.4 C 96 % 17.75 C
284 21-07-2016 23:35:00 18.4 C 96 % 17.75 C
285 21-07-2016 23:40:00 18.4 C 96 % 17.75 C
286 21-07-2016 23:45:00 18.4 C 96 % 17.75 C
287 21-07-2016 23:50:00 18.3 C 96 % 17.65 C
288 21-07-2016 23:55:00 18.3 C 96 % 17.65 C
289 22-07-2016 00:00:00 18.3 C 96 % 17.65 C
290 22-07-2016 00:05:00 18.3 C 96 % 17.65 C
291 22-07-2016 00:10:00 18.3 C 96 % 17.65 C
292 22-07-2016 00:15:00 18.3 C 96 % 17.65 C
293 22-07-2016 00:20:00 18.3 C 96 % 17.65 C
294 22-07-2016 00:25:00 18.3 C 96 % 17.65 C
295 22-07-2016 00:30:00 18.2 C 96 % 17.55 C
296 22-07-2016 00:35:00 18.2 C 96 % 17.55 C
297 22-07-2016 00:40:00 18.2 C 96 % 17.55 C
298 22-07-2016 00:45:00 18.2 C 96 % 17.55 C
299 22-07-2016 00:50:00 18.2 C 96 % 17.55 C
300 22-07-2016 00:55:00 18.1 C 96 % 17.45 C
Sensor: Nr:Datum:Temp:Feuchte:Taupunkt:
Aussen-T/F 301 22-07-2016 01:00:00 18.1 C 96 % 17.45 C
302 22-07-2016 01:05:00 18.1 C 96 % 17.45 C
303 22-07-2016 01:10:00 18.1 C 96 % 17.45 C
304 22-07-2016 01:15:00 18.1 C 96 % 17.45 C
305 22-07-2016 01:20:00 18.1 C 96 % 17.45 C
306 22-07-2016 01:25:00 18.1 C 96 % 17.45 C
307 22-07-2016 01:30:00 18 C 96 % 17.35 C
308 22-07-2016 01:35:00 18 C 96 % 17.35 C
309 22-07-2016 01:40:00 18 C 96 % 17.35 C
310 22-07-2016 01:45:00 18 C 96 % 17.35 C
311 22-07-2016 01:50:00 18 C 96 % 17.35 C
312 22-07-2016 01:55:00 18 C 96 % 17.35 C
313 22-07-2016 02:00:00 18 C 96 % 17.35 C
314 22-07-2016 02:05:00 18 C 96 % 17.35 C
315 22-07-2016 02:10:00 18.1 C 97 % 17.62 C
316 22-07-2016 02:15:00 18.1 C 97 % 17.62 C
317 22-07-2016 02:20:00 18.1 C 96 % 17.45 C
318 22-07-2016 02:25:00 18 C 96 % 17.35 C
319 22-07-2016 02:30:00 17.9 C 96 % 17.25 C
320 22-07-2016 02:35:00 17.9 C 96 % 17.25 C
321 22-07-2016 02:40:00 17.9 C 96 % 17.25 C
322 22-07-2016 02:45:00 17.8 C 96 % 17.15 C
323 22-07-2016 02:50:00 17.8 C 96 % 17.15 C
324 22-07-2016 02:55:00 17.8 C 96 % 17.15 C
325 22-07-2016 03:00:00 17.7 C 96 % 17.05 C
Sensor: Nr:Datum:Temp:Feuchte:Taupunkt:
Aussen-T/F 326 22-07-2016 03:05:00 17.6 C 96 % 16.95 C
327 22-07-2016 03:10:00 17.5 C 96 % 16.85 C
328 22-07-2016 03:15:00 17.4 C 96 % 16.76 C
329 22-07-2016 03:20:00 17.3 C 96 % 16.66 C
330 22-07-2016 03:25:00 17.3 C 96 % 16.66 C
331 22-07-2016 03:30:00 17.3 C 96 % 16.66 C
332 22-07-2016 03:35:00 17.3 C 96 % 16.66 C
333 22-07-2016 03:40:00 17.2 C 96 % 16.56 C
334 22-07-2016 03:45:00 17.2 C 96 % 16.56 C
335 22-07-2016 03:50:00 17.2 C 96 % 16.56 C
336 22-07-2016 03:55:00 17.2 C 96 % 16.56 C
337 22-07-2016 04:00:00 17.2 C 96 % 16.56 C
338 22-07-2016 04:05:00 17.2 C 96 % 16.56 C
339 22-07-2016 04:10:00 17.2 C 96 % 16.56 C
340 22-07-2016 04:15:00 17.1 C 96 % 16.46 C
341 22-07-2016 04:20:00 17.1 C 96 % 16.46 C
342 22-07-2016 04:25:00 17 C 96 % 16.36 C
343 22-07-2016 04:30:00 16.9 C 97 % 16.42 C
344 22-07-2016 04:35:00 16.9 C 97 % 16.42 C
345 22-07-2016 04:40:00 16.9 C 97 % 16.42 C
346 22-07-2016 04:45:00 16.9 C 97 % 16.42 C
347 22-07-2016 04:50:00 16.9 C 96 % 16.26 C
348 22-07-2016 04:55:00 16.8 C 96 % 16.16 C
349 22-07-2016 05:00:00 16.8 C 96 % 16.16 C
350 22-07-2016 05:05:00 16.8 C 96 % 16.16 C
Sensor: Nr:Datum:Temp:Feuchte:Taupunkt:
Aussen-T/F 351 22-07-2016 05:10:00 16.8 C 96 % 16.16 C
352 22-07-2016 05:15:00 16.8 C 96 % 16.16 C
353 22-07-2016 05:20:00 16.8 C 97 % 16.32 C
354 22-07-2016 05:25:00 16.8 C 97 % 16.32 C
355 22-07-2016 05:30:00 16.8 C 97 % 16.32 C
356 22-07-2016 05:35:00 16.7 C 97 % 16.22 C
357 22-07-2016 05:40:00 16.6 C 97 % 16.12 C
358 22-07-2016 05:45:00 16.6 C 97 % 16.12 C
359 22-07-2016 05:50:00 16.6 C 96 % 15.96 C
360 22-07-2016 05:55:00 16.5 C 96 % 15.86 C
361 22-07-2016 06:00:00 16.5 C 96 % 15.86 C
362 22-07-2016 06:05:00 16.5 C 97 % 16.02 C
363 22-07-2016 06:10:00 16.6 C 97 % 16.12 C
364 22-07-2016 06:15:00 16.6 C 97 % 16.12 C
365 22-07-2016 06:20:00 16.6 C 97 % 16.12 C
366 22-07-2016 06:25:00 16.6 C 97 % 16.12 C
367 22-07-2016 06:30:00 16.6 C 97 % 16.12 C
368 22-07-2016 06:35:00 16.6 C 97 % 16.12 C
369 22-07-2016 06:40:00 16.7 C 97 % 16.22 C
370 22-07-2016 06:45:00 16.8 C 97 % 16.32 C
371 22-07-2016 06:50:00 16.9 C 97 % 16.42 C
372 22-07-2016 06:55:00 17.1 C 97 % 16.62 C
373 22-07-2016 07:00:00 17.1 C 97 % 16.62 C
374 22-07-2016 07:05:00 17.2 C 97 % 16.72 C
375 22-07-2016 07:10:00 17.2 C 97 % 16.72 C
Sensor: Nr:Datum:Temp:Feuchte:Taupunkt:
Aussen-T/F 376 22-07-2016 07:15:00 17.2 C 97 % 16.72 C
377 22-07-2016 07:20:00 17.3 C 97 % 16.82 C
378 22-07-2016 07:25:00 17.3 C 97 % 16.82 C
379 22-07-2016 07:30:00 17.3 C 97 % 16.82 C
380 22-07-2016 07:35:00 17.4 C 97 % 16.92 C
381 22-07-2016 07:40:00 17.4 C 97 % 16.92 C
382 22-07-2016 07:45:00 17.5 C 97 % 17.02 C
383 22-07-2016 07:50:00 17.6 C 97 % 17.12 C
384 22-07-2016 07:55:00 17.6 C 97 % 17.12 C
385 22-07-2016 08:00:00 17.6 C 97 % 17.12 C
386 22-07-2016 08:05:00 17.6 C 97 % 17.12 C
387 22-07-2016 08:10:00 17.6 C 97 % 17.12 C
388 22-07-2016 08:15:00 17.6 C 97 % 17.12 C
389 22-07-2016 08:20:00 17.5 C 97 % 17.02 C
390 22-07-2016 08:25:00 17.5 C 97 % 17.02 C
391 22-07-2016 08:30:00 17.5 C 97 % 17.02 C
392 22-07-2016 08:35:00 17.6 C 97 % 17.12 C
393 22-07-2016 08:40:00 17.7 C 97 % 17.22 C
394 22-07-2016 08:45:00 17.6 C 97 % 17.12 C
395 22-07-2016 08:50:00 17.6 C 97 % 17.12 C
396 22-07-2016 08:55:00 17.6 C 97 % 17.12 C
397 22-07-2016 09:00:00 17.7 C 97 % 17.22 C
398 22-07-2016 09:05:00 17.7 C 97 % 17.22 C
399 22-07-2016 09:10:00 17.8 C 97 % 17.32 C
400 22-07-2016 09:15:00 18 C 97 % 17.52 C
Sensor: Nr:Datum:Temp:Feuchte:Taupunkt:
Aussen-T/F 401 22-07-2016 09:20:00 18.2 C 97 % 17.72 C
402 22-07-2016 09:25:00 18.2 C 97 % 17.72 C
403 22-07-2016 09:30:00 18.3 C 97 % 17.82 C
404 22-07-2016 09:35:00 18.3 C 97 % 17.82 C
405 22-07-2016 09:40:00 18.4 C 97 % 17.91 C
406 22-07-2016 09:45:00 18.6 C 97 % 18.11 C
407 22-07-2016 09:50:00 18.6 C 97 % 18.11 C
408 22-07-2016 09:55:00 18.7 C 97 % 18.21 C
409 22-07-2016 10:00:00 18.7 C 97 % 18.21 C
410 22-07-2016 10:05:00 18.8 C 97 % 18.31 C
411 22-07-2016 10:10:00 18.9 C 97 % 18.41 C
412 22-07-2016 10:15:00 19 C 97 % 18.51 C
413 22-07-2016 10:20:00 19.2 C 97 % 18.71 C
414 22-07-2016 10:25:00 19.3 C 97 % 18.81 C
415 22-07-2016 10:30:00 19.4 C 97 % 18.91 C
416 22-07-2016 10:35:00 19.5 C 97 % 19.01 C
417 22-07-2016 10:40:00 19.6 C 97 % 19.11 C
418 22-07-2016 10:45:00 19.8 C 97 % 19.31 C
419 22-07-2016 10:50:00 20 C 97 % 19.51 C
420 22-07-2016 10:55:00 20.2 C 97 % 19.71 C
421 22-07-2016 11:00:00 20.3 C 97 % 19.81 C
422 22-07-2016 11:05:00 20.4 C 97 % 19.91 C
423 22-07-2016 11:10:00 20.5 C 97 % 20.01 C
424 22-07-2016 11:15:00 20.7 C 97 % 20.21 C
425 22-07-2016 11:20:00 20.8 C 97 % 20.31 C
Sensor: Nr:Datum:Temp:Feuchte:Taupunkt:
Aussen-T/F 426 22-07-2016 11:25:00 20.9 C 97 % 20.41 C
427 22-07-2016 11:30:00 21.1 C 97 % 20.6 C
428 22-07-2016 11:35:00 21.3 C 96 % 20.64 C
429 22-07-2016 11:40:00 21.4 C 96 % 20.74 C
430 22-07-2016 11:45:00 21.6 C 96 % 20.93 C
431 22-07-2016 11:50:00 21.7 C 96 % 21.03 C
432 22-07-2016 11:55:00 21.7 C 96 % 21.03 C
433 22-07-2016 12:00:00 21.9 C 96 % 21.23 C
434 22-07-2016 12:05:00 21.9 C 95 % 21.06 C
435 22-07-2016 12:10:00 22.2 C 95 % 21.36 C
436 22-07-2016 12:15:00 22.3 C 94 % 21.29 C
437 22-07-2016 12:20:00 22.7 C 94 % 21.68 C
438 22-07-2016 12:25:00 23.1 C 92 % 21.73 C
439 22-07-2016 12:30:00 23.4 C 93 % 22.2 C
440 22-07-2016 12:35:00 23.7 C 93 % 22.5 C
441 22-07-2016 12:40:00 23.7 C 92 % 22.32 C
442 22-07-2016 12:45:00 23.8 C 90 % 22.06 C
443 22-07-2016 12:50:00 24 C 89 % 22.07 C
444 22-07-2016 12:55:00 24.1 C 86 % 21.61 C
445 22-07-2016 13:00:00 24.3 C 89 % 22.37 C
446 22-07-2016 13:05:00 24.5 C 88 % 22.38 C
447 22-07-2016 13:10:00 24.6 C 89 % 22.66 C
448 22-07-2016 13:15:00 24.6 C 90 % 22.85 C
449 22-07-2016 13:20:00 24.6 C 90 % 22.85 C
450 22-07-2016 13:25:00 24.4 C 87 % 22.09 C
Sensor: Nr:Datum:Temp:Feuchte:Taupunkt:
Aussen-T/F 451 22-07-2016 13:30:00 24.5 C 86 % 22 C
452 22-07-2016 13:35:00 24.7 C 83 % 21.62 C
453 22-07-2016 13:40:00 24.9 C 82 % 21.61 C
454 22-07-2016 13:45:00 25.1 C 82 % 21.81 C
455 22-07-2016 13:50:00 25.3 C 80 % 21.6 C
456 22-07-2016 13:55:00 25.6 C 78 % 21.48 C
457 22-07-2016 14:00:00 25.7 C 79 % 21.78 C
458 22-07-2016 14:05:00 25.9 C 76 % 21.34 C
459 22-07-2016 14:10:00 26 C 77 % 21.65 C
460 22-07-2016 14:15:00 26.2 C 76 % 21.63 C
461 22-07-2016 14:20:00 26.3 C 74 % 21.29 C
462 22-07-2016 14:25:00 26.5 C 73 % 21.26 C
463 22-07-2016 14:30:00 26.7 C 70 % 20.77 C
464 22-07-2016 14:35:00 26.9 C 71 % 21.19 C
465 22-07-2016 14:40:00 27 C 69 % 20.82 C
466 22-07-2016 14:45:00 27.1 C 70 % 21.15 C
467 22-07-2016 14:50:00 27.1 C 71 % 21.38 C
468 22-07-2016 14:55:00 27.2 C 74 % 22.16 C
469 22-07-2016 15:00:00 27.3 C 71 % 21.58 C
470 22-07-2016 15:05:00 27.4 C 75 % 22.57 C
471 22-07-2016 15:10:00 27.4 C 68 % 20.97 C
472 22-07-2016 15:15:00 27.6 C 72 % 22.09 C
473 22-07-2016 15:20:00 27.7 C 78 % 23.51 C
474 22-07-2016 15:25:00 27.6 C 73 % 22.32 C
475 22-07-2016 15:30:00 27.5 C 76 % 22.89 C
Sensor: Nr:Datum:Temp:Feuchte:Taupunkt:
Aussen-T/F 476 22-07-2016 15:35:00 27.3 C 69 % 21.11 C
477 22-07-2016 15:40:00 27.4 C 76 % 22.79 C
478 22-07-2016 15:45:00 27.4 C 72 % 21.9 C
479 22-07-2016 15:50:00 27.8 C 80 % 24.03 C
480 22-07-2016 15:55:00 28.2 C 74 % 23.12 C
481 22-07-2016 16:00:00 28.3 C 64 % 20.83 C
482 22-07-2016 16:05:00 28.8 C 76 % 24.14 C
483 22-07-2016 16:10:00 29.1 C 61 % 20.81 C
484 22-07-2016 16:15:00 29.3 C 64 % 21.78 C
485 22-07-2016 16:20:00 29.6 C 60 % 21.01 C
486 22-07-2016 16:25:00 29.6 C 67 % 22.82 C
487 22-07-2016 16:30:00 29.2 C 64 % 21.68 C
488 22-07-2016 16:35:00 28.5 C 70 % 22.49 C
489 22-07-2016 16:40:00 28 C 71 % 22.25 C
490 22-07-2016 16:45:00 27.7 C 65 % 20.52 C
491 22-07-2016 16:50:00 27.8 C 64 % 20.36 C
492 22-07-2016 16:55:00 27.8 C 66 % 20.86 C
493 22-07-2016 17:00:00 27.5 C 66 % 20.58 C
494 22-07-2016 17:05:00 27.2 C 66 % 20.29 C
495 22-07-2016 17:10:00 27 C 65 % 19.86 C
496 22-07-2016 17:15:00 27.1 C 65 % 19.95 C
497 22-07-2016 17:20:00 26.9 C 65 % 19.76 C
498 22-07-2016 17:25:00 26.8 C 64 % 19.42 C
499 22-07-2016 17:30:00 26.8 C 64 % 19.42 C
500 22-07-2016 17:35:00 27.1 C 69 % 20.92 C
Sensor: Nr:Datum:Temp:Feuchte:Taupunkt:
Aussen-T/F 501 22-07-2016 17:40:00 27.1 C 68 % 20.68 C
502 22-07-2016 17:45:00 27 C 69 % 20.82 C
503 22-07-2016 17:50:00 26.9 C 70 % 20.96 C
504 22-07-2016 17:55:00 26.8 C 67 % 20.16 C
505 22-07-2016 18:00:00 26.6 C 66 % 19.72 C
506 22-07-2016 18:05:00 26.4 C 74 % 21.39 C
507 22-07-2016 18:10:00 26.3 C 76 % 21.73 C
508 22-07-2016 18:15:00 26.1 C 76 % 21.53 C
509 22-07-2016 18:20:00 25.8 C 78 % 21.67 C
510 22-07-2016 18:25:00 25.6 C 78 % 21.48 C
511 22-07-2016 18:30:00 25.2 C 79 % 21.3 C
512 22-07-2016 18:35:00 24.8 C 81 % 21.31 C
513 22-07-2016 18:40:00 24.2 C 79 % 20.32 C
514 22-07-2016 18:45:00 23.9 C 77 % 19.62 C
515 22-07-2016 18:50:00 23.8 C 80 % 20.14 C
516 22-07-2016 18:55:00 23.7 C 82 % 20.44 C
517 22-07-2016 19:00:00 23.5 C 82 % 20.25 C
518 22-07-2016 19:05:00 23.3 C 83 % 20.25 C
519 22-07-2016 19:10:00 23.1 C 80 % 19.46 C
520 22-07-2016 19:15:00 23 C 84 % 20.15 C
521 22-07-2016 19:20:00 22.9 C 84 % 20.05 C
522 22-07-2016 19:25:00 22.8 C 84 % 19.95 C
523 22-07-2016 19:30:00 22.7 C 84 % 19.86 C
524 22-07-2016 19:35:00 22.6 C 84 % 19.76 C
525 22-07-2016 19:40:00 22.4 C 85 % 19.75 C
Sensor: Nr:Datum:Temp:Feuchte:Taupunkt:
Aussen-T/F 526 22-07-2016 19:45:00 22.3 C 85 % 19.65 C
527 22-07-2016 19:50:00 22.2 C 86 % 19.75 C
528 22-07-2016 19:55:00 22.1 C 87 % 19.83 C
529 22-07-2016 20:00:00 22.1 C 87 % 19.83 C
530 22-07-2016 20:05:00 21.9 C 87 % 19.64 C
531 22-07-2016 20:10:00 21.8 C 87 % 19.54 C
532 22-07-2016 20:15:00 21.8 C 88 % 19.72 C
533 22-07-2016 20:20:00 21.7 C 88 % 19.62 C
534 22-07-2016 20:25:00 21.7 C 88 % 19.62 C
535 22-07-2016 20:30:00 21.6 C 89 % 19.71 C
536 22-07-2016 20:35:00 21.5 C 87 % 19.24 C
537 22-07-2016 20:40:00 21.5 C 88 % 19.43 C
538 22-07-2016 20:45:00 21.4 C 88 % 19.33 C
539 22-07-2016 20:50:00 21.4 C 86 % 18.96 C
540 22-07-2016 20:55:00 21.3 C 87 % 19.05 C
541 22-07-2016 21:00:00 21.2 C 87 % 18.95 C
542 22-07-2016 21:05:00 21.2 C 87 % 18.95 C
543 22-07-2016 21:10:00 21.1 C 87 % 18.85 C
544 22-07-2016 21:15:00 20.9 C 88 % 18.84 C
545 22-07-2016 21:20:00 20.8 C 88 % 18.74 C
546 22-07-2016 21:25:00 20.7 C 88 % 18.64 C
547 22-07-2016 21:30:00 20.7 C 89 % 18.82 C
548 22-07-2016 21:35:00 20.6 C 88 % 18.54 C
549 22-07-2016 21:40:00 20.4 C 88 % 18.34 C
550 22-07-2016 21:45:00 20.4 C 88 % 18.34 C
Sensor: Nr:Datum:Temp:Feuchte:Taupunkt:
Aussen-T/F 551 22-07-2016 21:50:00 20.3 C 89 % 18.43 C
552 22-07-2016 21:55:00 20.3 C 89 % 18.43 C
553 22-07-2016 22:00:00 20.2 C 89 % 18.33 C
554 22-07-2016 22:05:00 20.2 C 89 % 18.33 C
555 22-07-2016 22:10:00 20.1 C 89 % 18.23 C
556 22-07-2016 22:15:00 20.1 C 89 % 18.23 C
557 22-07-2016 22:20:00 20 C 89 % 18.13 C
558 22-07-2016 22:25:00 19.9 C 89 % 18.03 C
559 22-07-2016 22:30:00 19.9 C 89 % 18.03 C
560 22-07-2016 22:35:00 19.9 C 89 % 18.03 C
561 22-07-2016 22:40:00 19.9 C 88 % 17.85 C
562 22-07-2016 22:45:00 19.8 C 88 % 17.75 C
563 22-07-2016 22:50:00 19.9 C 88 % 17.85 C
564 22-07-2016 22:55:00 19.9 C 88 % 17.85 C
565 22-07-2016 23:00:00 19.9 C 89 % 18.03 C
566 22-07-2016 23:05:00 19.9 C 89 % 18.03 C
567 22-07-2016 23:10:00 19.9 C 89 % 18.03 C
568 22-07-2016 23:15:00 19.9 C 89 % 18.03 C
569 22-07-2016 23:20:00 19.9 C 89 % 18.03 C
570 22-07-2016 23:25:00 19.9 C 89 % 18.03 C
571 22-07-2016 23:30:00 19.8 C 89 % 17.93 C
572 22-07-2016 23:35:00 19.8 C 89 % 17.93 C
573 22-07-2016 23:40:00 19.8 C 90 % 18.11 C
574 22-07-2016 23:45:00 19.8 C 90 % 18.11 C
575 22-07-2016 23:50:00 19.8 C 90 % 18.11 C
Sensor: Nr:Datum:Temp:Feuchte:Taupunkt:
Aussen-T/F 576 22-07-2016 23:55:00 19.7 C 90 % 18.01 C
577 23-07-2016 00:00:00 19.7 C 90 % 18.01 C
578 23-07-2016 00:05:00 19.7 C 90 % 18.01 C
579 23-07-2016 00:10:00 19.6 C 90 % 17.91 C
580 23-07-2016 00:15:00 19.6 C 91 % 18.09 C
581 23-07-2016 00:20:00 19.6 C 91 % 18.09 C
582 23-07-2016 00:25:00 19.5 C 91 % 17.99 C
583 23-07-2016 00:30:00 19.5 C 91 % 17.99 C
584 23-07-2016 00:35:00 19.4 C 91 % 17.89 C
585 23-07-2016 00:40:00 19.3 C 91 % 17.79 C
586 23-07-2016 00:45:00 19.3 C 91 % 17.79 C
587 23-07-2016 00:50:00 19.3 C 91 % 17.79 C
588 23-07-2016 00:55:00 19.2 C 92 % 17.87 C
589 23-07-2016 01:00:00 19.2 C 92 % 17.87 C
590 23-07-2016 01:05:00 19.2 C 92 % 17.87 C
591 23-07-2016 01:10:00 19.2 C 92 % 17.87 C
592 23-07-2016 01:15:00 19.2 C 92 % 17.87 C
593 23-07-2016 01:20:00 19.2 C 92 % 17.87 C
594 23-07-2016 01:25:00 19.2 C 93 % 18.04 C
595 23-07-2016 01:30:00 19.2 C 93 % 18.04 C
596 23-07-2016 01:35:00 19.2 C 93 % 18.04 C
597 23-07-2016 01:40:00 19.1 C 93 % 17.94 C
598 23-07-2016 01:45:00 19.1 C 92 % 17.77 C
599 23-07-2016 01:50:00 19.1 C 92 % 17.77 C
600 23-07-2016 01:55:00 19.1 C 93 % 17.94 C
Sensor: Nr:Datum:Temp:Feuchte:Taupunkt:
Aussen-T/F 601 23-07-2016 02:00:00 19.1 C 93 % 17.94 C
602 23-07-2016 02:05:00 19.1 C 93 % 17.94 C
603 23-07-2016 02:10:00 19 C 93 % 17.84 C
604 23-07-2016 02:15:00 18.9 C 93 % 17.74 C
605 23-07-2016 02:20:00 18.9 C 93 % 17.74 C
606 23-07-2016 02:25:00 18.9 C 93 % 17.74 C
607 23-07-2016 02:30:00 18.9 C 93 % 17.74 C
608 23-07-2016 02:35:00 18.9 C 93 % 17.74 C
609 23-07-2016 02:40:00 18.8 C 93 % 17.64 C
610 23-07-2016 02:45:00 18.8 C 93 % 17.64 C
611 23-07-2016 02:50:00 18.8 C 93 % 17.64 C
612 23-07-2016 02:55:00 18.8 C 93 % 17.64 C
613 23-07-2016 03:00:00 18.7 C 93 % 17.54 C
614 23-07-2016 03:05:00 18.7 C 93 % 17.54 C
615 23-07-2016 03:10:00 18.7 C 93 % 17.54 C
616 23-07-2016 03:15:00 18.7 C 93 % 17.54 C
617 23-07-2016 03:20:00 18.6 C 93 % 17.45 C
618 23-07-2016 03:25:00 18.6 C 93 % 17.45 C
619 23-07-2016 03:30:00 18.6 C 93 % 17.45 C
620 23-07-2016 03:35:00 18.6 C 93 % 17.45 C
621 23-07-2016 03:40:00 18.6 C 93 % 17.45 C
622 23-07-2016 03:45:00 18.6 C 93 % 17.45 C
623 23-07-2016 03:50:00 18.5 C 93 % 17.35 C
624 23-07-2016 03:55:00 18.4 C 93 % 17.25 C
625 23-07-2016 04:00:00 18.4 C 93 % 17.25 C
Sensor: Nr:Datum:Temp:Feuchte:Taupunkt:
Aussen-T/F 626 23-07-2016 04:05:00 18.4 C 93 % 17.25 C
627 23-07-2016 04:10:00 18.4 C 93 % 17.25 C
628 23-07-2016 04:15:00 18.3 C 93 % 17.15 C
629 23-07-2016 04:20:00 18.3 C 93 % 17.15 C
630 23-07-2016 04:25:00 18.3 C 93 % 17.15 C
631 23-07-2016 04:30:00 18.3 C 93 % 17.15 C
632 23-07-2016 04:35:00 18.4 C 93 % 17.25 C
633 23-07-2016 04:40:00 18.4 C 93 % 17.25 C
634 23-07-2016 04:45:00 18.4 C 94 % 17.42 C
635 23-07-2016 04:50:00 18.4 C 94 % 17.42 C
636 23-07-2016 04:55:00 18.5 C 94 % 17.52 C
637 23-07-2016 05:00:00 18.4 C 94 % 17.42 C
638 23-07-2016 05:05:00 18.4 C 94 % 17.42 C
639 23-07-2016 05:10:00 18.4 C 94 % 17.42 C
640 23-07-2016 05:15:00 18.4 C 94 % 17.42 C
641 23-07-2016 05:20:00 18.3 C 94 % 17.32 C
642 23-07-2016 05:25:00 18.3 C 94 % 17.32 C
643 23-07-2016 05:30:00 18.3 C 94 % 17.32 C
644 23-07-2016 05:35:00 18.3 C 94 % 17.32 C
645 23-07-2016 05:40:00 18.3 C 94 % 17.32 C
646 23-07-2016 05:45:00 18.3 C 94 % 17.32 C
647 23-07-2016 05:50:00 18.3 C 95 % 17.48 C
648 23-07-2016 05:55:00 18.3 C 95 % 17.48 C
649 23-07-2016 06:00:00 18.3 C 95 % 17.48 C
650 23-07-2016 06:05:00 18.3 C 95 % 17.48 C
Sensor: Nr:Datum:Temp:Feuchte:Taupunkt:
Aussen-T/F 651 23-07-2016 06:10:00 18.3 C 95 % 17.48 C
652 23-07-2016 06:15:00 18.3 C 95 % 17.48 C
653 23-07-2016 06:20:00 18.3 C 95 % 17.48 C
654 23-07-2016 06:25:00 18.4 C 95 % 17.58 C
655 23-07-2016 06:30:00 18.4 C 95 % 17.58 C
656 23-07-2016 06:35:00 18.4 C 95 % 17.58 C
657 23-07-2016 06:40:00 18.4 C 95 % 17.58 C
658 23-07-2016 06:45:00 18.4 C 95 % 17.58 C
659 23-07-2016 06:50:00 18.4 C 95 % 17.58 C
660 23-07-2016 06:55:00 18.4 C 95 % 17.58 C
661 23-07-2016 07:00:00 18.4 C 95 % 17.58 C
662 23-07-2016 07:05:00 18.5 C 95 % 17.68 C
663 23-07-2016 07:10:00 18.6 C 95 % 17.78 C
664 23-07-2016 07:15:00 18.6 C 95 % 17.78 C
665 23-07-2016 07:20:00 18.6 C 95 % 17.78 C
666 23-07-2016 07:25:00 18.6 C 95 % 17.78 C
667 23-07-2016 07:30:00 18.7 C 95 % 17.88 C
668 23-07-2016 07:35:00 18.7 C 96 % 18.05 C
669 23-07-2016 07:40:00 18.8 C 96 % 18.15 C
670 23-07-2016 07:45:00 18.9 C 96 % 18.25 C
671 23-07-2016 07:50:00 18.9 C 96 % 18.25 C
672 23-07-2016 07:55:00 19 C 96 % 18.35 C
673 23-07-2016 08:00:00 19 C 96 % 18.35 C
674 23-07-2016 08:05:00 19 C 95 % 18.18 C
675 23-07-2016 08:10:00 19 C 95 % 18.18 C
Sensor: Nr:Datum:Temp:Feuchte:Taupunkt:
Aussen-T/F 676 23-07-2016 08:15:00 19 C 95 % 18.18 C
677 23-07-2016 08:20:00 19 C 95 % 18.18 C
678 23-07-2016 08:25:00 19 C 95 % 18.18 C
679 23-07-2016 08:30:00 19.1 C 96 % 18.45 C
680 23-07-2016 08:35:00 19.2 C 96 % 18.55 C
681 23-07-2016 08:40:00 19.3 C 95 % 18.48 C
682 23-07-2016 08:45:00 19.4 C 96 % 18.75 C
683 23-07-2016 08:50:00 19.4 C 96 % 18.75 C
684 23-07-2016 08:55:00 19.5 C 95 % 18.68 C
685 23-07-2016 09:00:00 19.6 C 95 % 18.78 C
686 23-07-2016 09:05:00 19.7 C 95 % 18.88 C
687 23-07-2016 09:10:00 19.7 C 95 % 18.88 C
688 23-07-2016 09:15:00 19.8 C 95 % 18.98 C
689 23-07-2016 09:20:00 19.9 C 95 % 19.07 C
690 23-07-2016 09:25:00 19.9 C 95 % 19.07 C
691 23-07-2016 09:30:00 20 C 95 % 19.17 C
692 23-07-2016 09:35:00 20.1 C 95 % 19.27 C
693 23-07-2016 09:40:00 20.1 C 95 % 19.27 C
694 23-07-2016 09:45:00 20.1 C 94 % 19.1 C
695 23-07-2016 09:50:00 20.1 C 94 % 19.1 C
696 23-07-2016 09:55:00 20.1 C 94 % 19.1 C
697 23-07-2016 10:00:00 20.3 C 94 % 19.3 C
698 23-07-2016 10:05:00 20.4 C 94 % 19.4 C
699 23-07-2016 10:10:00 20.4 C 93 % 19.23 C
700 23-07-2016 10:15:00 20.5 C 93 % 19.33 C
Sensor: Nr:Datum:Temp:Feuchte:Taupunkt:
Aussen-T/F 701 23-07-2016 10:20:00 20.6 C 93 % 19.43 C
702 23-07-2016 10:25:00 20.7 C 93 % 19.53 C
703 23-07-2016 10:30:00 20.7 C 92 % 19.35 C
704 23-07-2016 10:35:00 20.7 C 92 % 19.35 C
705 23-07-2016 10:40:00 20.7 C 91 % 19.18 C
706 23-07-2016 10:45:00 20.8 C 92 % 19.45 C
707 23-07-2016 10:50:00 20.8 C 92 % 19.45 C
708 23-07-2016 10:55:00 20.9 C 92 % 19.55 C
709 23-07-2016 11:00:00 21 C 92 % 19.65 C
710 23-07-2016 11:05:00 21.1 C 92 % 19.75 C
711 23-07-2016 11:10:00 21.1 C 92 % 19.75 C
712 23-07-2016 11:15:00 21.2 C 93 % 20.02 C
713 23-07-2016 11:20:00 21.1 C 91 % 19.57 C
714 23-07-2016 11:25:00 21.1 C 92 % 19.75 C
715 23-07-2016 11:30:00 21.2 C 92 % 19.85 C
716 23-07-2016 11:35:00 21.1 C 91 % 19.57 C
717 23-07-2016 11:40:00 21.1 C 91 % 19.57 C
718 23-07-2016 11:45:00 21.1 C 90 % 19.39 C
719 23-07-2016 11:50:00 21.1 C 90 % 19.39 C
720 23-07-2016 11:55:00 21.2 C 90 % 19.49 C
721 23-07-2016 12:00:00 21.3 C 89 % 19.41 C
722 23-07-2016 12:05:00 21.4 C 90 % 19.69 C
723 23-07-2016 12:10:00 21.7 C 89 % 19.81 C
724 23-07-2016 12:15:00 21.8 C 89 % 19.9 C
725 23-07-2016 12:20:00 21.9 C 87 % 19.64 C
Sensor: Nr:Datum:Temp:Feuchte:Taupunkt:
Aussen-T/F 726 23-07-2016 12:25:00 22.1 C 87 % 19.83 C
727 23-07-2016 12:30:00 22.1 C 86 % 19.65 C
728 23-07-2016 12:35:00 22.2 C 85 % 19.56 C
729 23-07-2016 12:40:00 22.3 C 85 % 19.65 C
730 23-07-2016 12:45:00 22.3 C 84 % 19.46 C
731 23-07-2016 12:50:00 22.4 C 84 % 19.56 C
732 23-07-2016 12:55:00 22.5 C 84 % 19.66 C
733 23-07-2016 13:00:00 22.5 C 82 % 19.27 C
734 23-07-2016 13:05:00 22.6 C 82 % 19.37 C
735 23-07-2016 13:10:00 22.6 C 82 % 19.37 C
736 23-07-2016 13:15:00 22.7 C 82 % 19.47 C
737 23-07-2016 13:20:00 22.8 C 83 % 19.76 C
738 23-07-2016 13:25:00 22.8 C 82 % 19.56 C
739 23-07-2016 13:30:00 22.9 C 82 % 19.66 C
740 23-07-2016 13:35:00 23.1 C 84 % 20.25 C
741 23-07-2016 13:40:00 23.3 C 82 % 20.05 C
742 23-07-2016 13:45:00 23.4 C 82 % 20.15 C
743 23-07-2016 13:50:00 23.5 C 79 % 19.65 C
744 23-07-2016 13:55:00 23.6 C 79 % 19.74 C
745 23-07-2016 14:00:00 23.7 C 79 % 19.84 C
746 23-07-2016 14:05:00 23.8 C 80 % 20.14 C
747 23-07-2016 14:10:00 23.9 C 78 % 19.83 C
748 23-07-2016 14:15:00 24.1 C 78 % 20.02 C
749 23-07-2016 14:20:00 24.1 C 79 % 20.23 C
750 23-07-2016 14:25:00 24.2 C 76 % 19.7 C
Sensor: Nr:Datum:Temp:Feuchte:Taupunkt:
Aussen-T/F 751 23-07-2016 14:30:00 24.3 C 77 % 20.01 C
752 23-07-2016 14:35:00 24.3 C 75 % 19.58 C
753 23-07-2016 14:40:00 24.3 C 74 % 19.37 C
754 23-07-2016 14:45:00 24.2 C 74 % 19.27 C
755 23-07-2016 14:50:00 24.2 C 77 % 19.91 C
756 23-07-2016 14:55:00 24.1 C 77 % 19.81 C
757 23-07-2016 15:00:00 23.9 C 77 % 19.62 C
758 23-07-2016 15:05:00 23.8 C 79 % 19.94 C
759 23-07-2016 15:10:00 23.7 C 79 % 19.84 C
760 23-07-2016 15:15:00 23.7 C 78 % 19.63 C
761 23-07-2016 15:20:00 23.6 C 78 % 19.54 C
762 23-07-2016 15:25:00 23.4 C 79 % 19.55 C
763 23-07-2016 15:30:00 23.4 C 80 % 19.75 C
764 23-07-2016 15:35:00 23.4 C 80 % 19.75 C
765 23-07-2016 15:40:00 23.3 C 82 % 20.05 C
766 23-07-2016 15:45:00 23.2 C 81 % 19.76 C
767 23-07-2016 15:50:00 23 C 81 % 19.56 C
768 23-07-2016 15:55:00 22.9 C 82 % 19.66 C
769 23-07-2016 16:00:00 22.9 C 83 % 19.86 C
770 23-07-2016 16:05:00 22.9 C 84 % 20.05 C
771 23-07-2016 16:10:00 22.9 C 83 % 19.86 C
772 23-07-2016 16:15:00 23.1 C 83 % 20.05 C
773 23-07-2016 16:20:00 23.1 C 83 % 20.05 C
774 23-07-2016 16:25:00 23.1 C 83 % 20.05 C
775 23-07-2016 16:30:00 23 C 82 % 19.76 C
Sensor: Nr:Datum:Temp:Feuchte:Taupunkt:
Aussen-T/F 776 23-07-2016 16:35:00 22.8 C 85 % 20.14 C
777 23-07-2016 16:40:00 22.5 C 87 % 20.23 C
778 23-07-2016 16:45:00 22 C 88 % 19.92 C
779 23-07-2016 16:50:00 21.7 C 89 % 19.81 C
780 23-07-2016 16:55:00 21.4 C 91 % 19.87 C
781 23-07-2016 17:00:00 21.2 C 91 % 19.67 C
782 23-07-2016 17:05:00 20.9 C 92 % 19.55 C
783 23-07-2016 17:10:00 20.8 C 92 % 19.45 C
784 23-07-2016 17:15:00 20.7 C 92 % 19.35 C
785 23-07-2016 17:20:00 20.6 C 93 % 19.43 C
786 23-07-2016 17:25:00 20.5 C 93 % 19.33 C
787 23-07-2016 17:30:00 20.5 C 93 % 19.33 C
788 23-07-2016 17:35:00 20.5 C 93 % 19.33 C
789 23-07-2016 17:40:00 20.4 C 93 % 19.23 C
790 23-07-2016 17:45:00 20.4 C 93 % 19.23 C
791 23-07-2016 17:50:00 20.4 C 93 % 19.23 C
792 23-07-2016 17:55:00 20.4 C 94 % 19.4 C
793 23-07-2016 18:00:00 20.4 C 94 % 19.4 C
794 23-07-2016 18:05:00 20.5 C 94 % 19.5 C
795 23-07-2016 18:10:00 20.6 C 95 % 19.77 C
796 23-07-2016 18:15:00 20.6 C 94 % 19.6 C
797 23-07-2016 18:20:00 20.6 C 95 % 19.77 C
798 23-07-2016 18:25:00 20.8 C 95 % 19.97 C
799 23-07-2016 18:30:00 20.8 C 95 % 19.97 C
800 23-07-2016 18:35:00 20.8 C 95 % 19.97 C
Sensor: Nr:Datum:Temp:Feuchte:Taupunkt:
Aussen-T/F 801 23-07-2016 18:40:00 20.9 C 95 % 20.07 C
802 23-07-2016 18:45:00 21.1 C 95 % 20.27 C
803 23-07-2016 18:50:00 21.1 C 95 % 20.27 C
804 23-07-2016 18:55:00 21.2 C 95 % 20.37 C
805 23-07-2016 19:00:00 21.2 C 95 % 20.37 C
806 23-07-2016 19:05:00 21.1 C 95 % 20.27 C
807 23-07-2016 19:10:00 21.1 C 95 % 20.27 C
808 23-07-2016 19:15:00 21.1 C 95 % 20.27 C
809 23-07-2016 19:20:00 21.2 C 95 % 20.37 C
810 23-07-2016 19:25:00 21.1 C 95 % 20.27 C
811 23-07-2016 19:30:00 21.1 C 95 % 20.27 C
812 23-07-2016 19:35:00 21.1 C 95 % 20.27 C
813 23-07-2016 19:40:00 21.1 C 95 % 20.27 C
814 23-07-2016 19:45:00 21 C 95 % 20.17 C
815 23-07-2016 19:50:00 20.9 C 95 % 20.07 C
816 23-07-2016 19:55:00 20.9 C 95 % 20.07 C
817 23-07-2016 20:00:00 20.8 C 95 % 19.97 C
818 23-07-2016 20:05:00 20.8 C 95 % 19.97 C
819 23-07-2016 20:10:00 20.8 C 95 % 19.97 C
820 23-07-2016 20:15:00 20.7 C 95 % 19.87 C
821 23-07-2016 20:20:00 20.7 C 95 % 19.87 C
822 23-07-2016 20:25:00 20.7 C 95 % 19.87 C
823 23-07-2016 20:30:00 20.6 C 95 % 19.77 C
824 23-07-2016 20:35:00 20.6 C 95 % 19.77 C
825 23-07-2016 20:40:00 20.6 C 95 % 19.77 C
Sensor: Nr:Datum:Temp:Feuchte:Taupunkt:
Aussen-T/F 826 23-07-2016 20:45:00 20.5 C 95 % 19.67 C
827 23-07-2016 20:50:00 20.5 C 95 % 19.67 C
828 23-07-2016 20:55:00 20.4 C 96 % 19.74 C
829 23-07-2016 21:00:00 20.5 C 96 % 19.84 C
830 23-07-2016 21:05:00 20.5 C 96 % 19.84 C
831 23-07-2016 21:10:00 20.4 C 95 % 19.57 C
832 23-07-2016 21:15:00 20.4 C 96 % 19.74 C
833 23-07-2016 21:20:00 20.4 C 96 % 19.74 C
834 23-07-2016 21:25:00 20.4 C 96 % 19.74 C
835 23-07-2016 21:30:00 20.3 C 95 % 19.47 C
836 23-07-2016 21:35:00 20.2 C 96 % 19.54 C
837 23-07-2016 21:40:00 20.1 C 96 % 19.44 C
838 23-07-2016 21:45:00 20.1 C 95 % 19.27 C
839 23-07-2016 21:50:00 19.9 C 95 % 19.07 C
840 23-07-2016 21:55:00 19.9 C 95 % 19.07 C
841 23-07-2016 22:00:00 19.8 C 96 % 19.14 C
842 23-07-2016 22:05:00 19.8 C 96 % 19.14 C
843 23-07-2016 22:10:00 19.7 C 95 % 18.88 C
844 23-07-2016 22:15:00 19.7 C 96 % 19.04 C
845 23-07-2016 22:20:00 19.7 C 96 % 19.04 C
846 23-07-2016 22:25:00 19.6 C 96 % 18.94 C
847 23-07-2016 22:30:00 19.6 C 96 % 18.94 C
848 23-07-2016 22:35:00 19.6 C 96 % 18.94 C
849 23-07-2016 22:40:00 19.6 C 96 % 18.94 C
850 23-07-2016 22:45:00 19.5 C 96 % 18.84 C
Sensor: Nr:Datum:Temp:Feuchte:Taupunkt:
Aussen-T/F 851 23-07-2016 22:50:00 19.5 C 96 % 18.84 C
852 23-07-2016 22:55:00 19.4 C 96 % 18.75 C
853 23-07-2016 23:00:00 19.4 C 96 % 18.75 C
854 23-07-2016 23:05:00 19.4 C 96 % 18.75 C
855 23-07-2016 23:10:00 19.4 C 96 % 18.75 C
856 23-07-2016 23:15:00 19.4 C 96 % 18.75 C
857 23-07-2016 23:20:00 19.4 C 96 % 18.75 C
858 23-07-2016 23:25:00 19.4 C 96 % 18.75 C
859 23-07-2016 23:30:00 19.4 C 96 % 18.75 C
860 23-07-2016 23:35:00 19.4 C 96 % 18.75 C
861 23-07-2016 23:40:00 19.3 C 96 % 18.65 C
862 23-07-2016 23:45:00 19.3 C 96 % 18.65 C
863 23-07-2016 23:50:00 19.3 C 96 % 18.65 C
864 23-07-2016 23:55:00 19.3 C 96 % 18.65 C
865 24-07-2016 00:00:00 19.3 C 96 % 18.65 C
866 24-07-2016 00:05:00 19.3 C 96 % 18.65 C
867 24-07-2016 00:10:00 19.3 C 96 % 18.65 C
868 24-07-2016 00:15:00 19.3 C 96 % 18.65 C
869 24-07-2016 00:20:00 19.3 C 96 % 18.65 C
870 24-07-2016 00:25:00 19.2 C 96 % 18.55 C
871 24-07-2016 00:30:00 19.2 C 96 % 18.55 C
872 24-07-2016 00:35:00 19.1 C 96 % 18.45 C
873 24-07-2016 00:40:00 19.1 C 96 % 18.45 C
874 24-07-2016 00:45:00 19.1 C 96 % 18.45 C
875 24-07-2016 00:50:00 19.1 C 96 % 18.45 C
Sensor: Nr:Datum:Temp:Feuchte:Taupunkt:
Aussen-T/F 876 24-07-2016 00:55:00 19.1 C 96 % 18.45 C
877 24-07-2016 01:00:00 19.1 C 96 % 18.45 C
878 24-07-2016 01:05:00 19.1 C 96 % 18.45 C
879 24-07-2016 01:10:00 19.1 C 96 % 18.45 C
880 24-07-2016 01:15:00 19.1 C 96 % 18.45 C
881 24-07-2016 01:20:00 19.1 C 96 % 18.45 C
882 24-07-2016 01:25:00 19.1 C 96 % 18.45 C
883 24-07-2016 01:30:00 19.1 C 96 % 18.45 C
884 24-07-2016 01:35:00 19.2 C 97 % 18.71 C
885 24-07-2016 01:40:00 19.2 C 97 % 18.71 C
886 24-07-2016 01:45:00 19.2 C 97 % 18.71 C
887 24-07-2016 01:50:00 19.2 C 97 % 18.71 C
888 24-07-2016 01:55:00 19.1 C 97 % 18.61 C
889 24-07-2016 02:00:00 19.1 C 97 % 18.61 C
890 24-07-2016 02:05:00 19.1 C 97 % 18.61 C
891 24-07-2016 02:10:00 19.1 C 97 % 18.61 C
892 24-07-2016 02:15:00 19.1 C 97 % 18.61 C
893 24-07-2016 02:20:00 19.1 C 96 % 18.45 C
894 24-07-2016 02:25:00 19.1 C 96 % 18.45 C
895 24-07-2016 02:30:00 19.1 C 96 % 18.45 C
896 24-07-2016 02:35:00 19.1 C 96 % 18.45 C
897 24-07-2016 02:40:00 19.1 C 97 % 18.61 C
898 24-07-2016 02:45:00 19.1 C 97 % 18.61 C
899 24-07-2016 02:50:00 19.1 C 97 % 18.61 C
900 24-07-2016 02:55:00 19.1 C 97 % 18.61 C
Sensor: Nr:Datum:Temp:Feuchte:Taupunkt:
Aussen-T/F 901 24-07-2016 03:00:00 19.1 C 97 % 18.61 C
902 24-07-2016 03:05:00 19.1 C 97 % 18.61 C
903 24-07-2016 03:10:00 19.1 C 97 % 18.61 C
904 24-07-2016 03:15:00 19.1 C 97 % 18.61 C
905 24-07-2016 03:20:00 19.1 C 97 % 18.61 C
906 24-07-2016 03:25:00 19.1 C 97 % 18.61 C
907 24-07-2016 03:30:00 19.1 C 97 % 18.61 C
908 24-07-2016 03:35:00 19.1 C 97 % 18.61 C
909 24-07-2016 03:40:00 19.1 C 97 % 18.61 C
910 24-07-2016 03:45:00 19.1 C 97 % 18.61 C
911 24-07-2016 03:50:00 19.2 C 97 % 18.71 C
912 24-07-2016 03:55:00 19.1 C 97 % 18.61 C
913 24-07-2016 04:00:00 19.1 C 97 % 18.61 C
914 24-07-2016 04:05:00 19.1 C 97 % 18.61 C
915 24-07-2016 04:10:00 19.1 C 97 % 18.61 C
916 24-07-2016 04:15:00 19.1 C 97 % 18.61 C
917 24-07-2016 04:20:00 19.1 C 97 % 18.61 C
918 24-07-2016 04:25:00 19.1 C 97 % 18.61 C
919 24-07-2016 04:30:00 19.1 C 97 % 18.61 C
920 24-07-2016 04:35:00 19.1 C 97 % 18.61 C
921 24-07-2016 04:40:00 19 C 97 % 18.51 C
922 24-07-2016 04:45:00 18.9 C 97 % 18.41 C
923 24-07-2016 04:50:00 18.9 C 97 % 18.41 C
924 24-07-2016 04:55:00 18.8 C 97 % 18.31 C
925 24-07-2016 05:00:00 18.8 C 97 % 18.31 C
Sensor: Nr:Datum:Temp:Feuchte:Taupunkt:
Aussen-T/F 926 24-07-2016 05:05:00 18.7 C 96 % 18.05 C
927 24-07-2016 05:10:00 18.7 C 96 % 18.05 C
928 24-07-2016 05:15:00 18.6 C 97 % 18.11 C
929 24-07-2016 05:20:00 18.6 C 97 % 18.11 C
930 24-07-2016 05:25:00 18.6 C 97 % 18.11 C
931 24-07-2016 05:30:00 18.5 C 97 % 18.01 C
932 24-07-2016 05:35:00 18.5 C 97 % 18.01 C
933 24-07-2016 05:40:00 18.5 C 97 % 18.01 C
934 24-07-2016 05:45:00 18.6 C 97 % 18.11 C
935 24-07-2016 05:50:00 18.6 C 97 % 18.11 C
936 24-07-2016 05:55:00 18.6 C 97 % 18.11 C
937 24-07-2016 06:00:00 18.6 C 97 % 18.11 C
938 24-07-2016 06:05:00 18.6 C 97 % 18.11 C
939 24-07-2016 06:10:00 18.6 C 97 % 18.11 C
940 24-07-2016 06:15:00 18.6 C 97 % 18.11 C
941 24-07-2016 06:20:00 18.6 C 97 % 18.11 C
942 24-07-2016 06:25:00 18.6 C 97 % 18.11 C
943 24-07-2016 06:30:00 18.7 C 97 % 18.21 C
944 24-07-2016 06:35:00 18.7 C 97 % 18.21 C
945 24-07-2016 06:40:00 18.7 C 97 % 18.21 C
946 24-07-2016 06:45:00 18.7 C 97 % 18.21 C
947 24-07-2016 06:50:00 18.8 C 97 % 18.31 C
948 24-07-2016 06:55:00 18.8 C 97 % 18.31 C
949 24-07-2016 07:00:00 18.8 C 97 % 18.31 C
950 24-07-2016 07:05:00 18.8 C 97 % 18.31 C
Sensor: Nr:Datum:Temp:Feuchte:Taupunkt:
Aussen-T/F 951 24-07-2016 07:10:00 18.9 C 97 % 18.41 C
952 24-07-2016 07:15:00 18.9 C 97 % 18.41 C
953 24-07-2016 07:20:00 18.9 C 97 % 18.41 C
954 24-07-2016 07:25:00 19 C 97 % 18.51 C
955 24-07-2016 07:30:00 19 C 97 % 18.51 C
956 24-07-2016 07:35:00 19.1 C 97 % 18.61 C
957 24-07-2016 07:40:00 19.1 C 97 % 18.61 C
958 24-07-2016 07:45:00 19.2 C 97 % 18.71 C
959 24-07-2016 07:50:00 19.2 C 97 % 18.71 C
960 24-07-2016 07:55:00 19.3 C 97 % 18.81 C
961 24-07-2016 08:00:00 19.3 C 97 % 18.81 C
962 24-07-2016 08:05:00 19.3 C 97 % 18.81 C
963 24-07-2016 08:10:00 19.3 C 97 % 18.81 C
964 24-07-2016 08:15:00 19.3 C 97 % 18.81 C
965 24-07-2016 08:20:00 19.4 C 97 % 18.91 C
966 24-07-2016 08:25:00 19.4 C 97 % 18.91 C
967 24-07-2016 08:30:00 19.4 C 97 % 18.91 C
968 24-07-2016 08:35:00 19.4 C 97 % 18.91 C
969 24-07-2016 08:40:00 19.4 C 97 % 18.91 C
970 24-07-2016 08:45:00 19.6 C 97 % 19.11 C
971 24-07-2016 08:50:00 19.6 C 97 % 19.11 C
972 24-07-2016 08:55:00 19.6 C 97 % 19.11 C
973 24-07-2016 09:00:00 19.6 C 97 % 19.11 C
974 24-07-2016 09:05:00 19.7 C 97 % 19.21 C
975 24-07-2016 09:10:00 19.7 C 97 % 19.21 C
Sensor: Nr:Datum:Temp:Feuchte:Taupunkt:
Aussen-T/F 976 24-07-2016 09:15:00 19.7 C 97 % 19.21 C
977 24-07-2016 09:20:00 19.7 C 97 % 19.21 C
978 24-07-2016 09:25:00 19.8 C 97 % 19.31 C
979 24-07-2016 09:30:00 19.7 C 97 % 19.21 C
980 24-07-2016 09:35:00 19.7 C 97 % 19.21 C
981 24-07-2016 09:40:00 19.7 C 97 % 19.21 C
982 24-07-2016 09:45:00 19.7 C 97 % 19.21 C
983 24-07-2016 09:50:00 19.7 C 96 % 19.04 C
984 24-07-2016 09:55:00 19.8 C 96 % 19.14 C
985 24-07-2016 10:00:00 19.9 C 96 % 19.24 C
986 24-07-2016 10:05:00 19.9 C 96 % 19.24 C
987 24-07-2016 10:10:00 20.1 C 96 % 19.44 C
988 24-07-2016 10:15:00 20.1 C 95 % 19.27 C
989 24-07-2016 10:20:00 20.2 C 94 % 19.2 C
990 24-07-2016 10:25:00 20.3 C 94 % 19.3 C
991 24-07-2016 10:30:00 20.4 C 94 % 19.4 C
992 24-07-2016 10:35:00 20.4 C 93 % 19.23 C
993 24-07-2016 10:40:00 20.6 C 93 % 19.43 C
994 24-07-2016 10:45:00 20.7 C 92 % 19.35 C
995 24-07-2016 10:50:00 20.7 C 92 % 19.35 C
996 24-07-2016 10:55:00 20.8 C 91 % 19.28 C
997 24-07-2016 11:00:00 20.8 C 91 % 19.28 C
998 24-07-2016 11:05:00 20.9 C 91 % 19.37 C
999 24-07-2016 11:10:00 21.1 C 90 % 19.39 C
1000 24-07-2016 11:15:00 21.3 C 89 % 19.41 C
Sensor: Nr:Datum:Temp:Feuchte:Taupunkt:
Aussen-T/F 1001 24-07-2016 11:20:00 21.4 C 90 % 19.69 C
1002 24-07-2016 11:25:00 21.4 C 88 % 19.33 C
1003 24-07-2016 11:30:00 21.7 C 91 % 20.17 C
1004 24-07-2016 11:35:00 21.8 C 92 % 20.44 C
1005 24-07-2016 11:40:00 21.8 C 89 % 19.9 C
1006 24-07-2016 11:45:00 21.9 C 90 % 20.18 C
1007 24-07-2016 11:50:00 22 C 88 % 19.92 C
1008 24-07-2016 11:55:00 22.1 C 87 % 19.83 C
1009 24-07-2016 12:00:00 22.3 C 85 % 19.65 C
1010 24-07-2016 12:05:00 22.5 C 87 % 20.23 C
1011 24-07-2016 12:10:00 22.7 C 85 % 20.05 C
1012 24-07-2016 12:15:00 22.9 C 82 % 19.66 C
1013 24-07-2016 12:20:00 23.2 C 82 % 19.95 C
1014 24-07-2016 12:25:00 23.3 C 81 % 19.85 C
1015 24-07-2016 12:30:00 23.3 C 80 % 19.65 C
1016 24-07-2016 12:35:00 23.3 C 79 % 19.45 C
1017 24-07-2016 12:40:00 23.3 C 79 % 19.45 C
1018 24-07-2016 12:45:00 23.3 C 79 % 19.45 C
1019 24-07-2016 12:50:00 23.3 C 77 % 19.04 C
1020 24-07-2016 12:55:00 23.4 C 83 % 20.35 C
1021 24-07-2016 13:00:00 23.5 C 80 % 19.85 C
1022 24-07-2016 13:05:00 23.6 C 80 % 19.95 C
1023 24-07-2016 13:10:00 23.7 C 81 % 20.24 C
1024 24-07-2016 13:15:00 23.7 C 81 % 20.24 C
1025 24-07-2016 13:20:00 23.6 C 81 % 20.15 C
Sensor: Nr:Datum:Temp:Feuchte:Taupunkt:
Aussen-T/F 1026 24-07-2016 13:25:00 23.7 C 81 % 20.24 C
1027 24-07-2016 13:30:00 23.7 C 82 % 20.44 C
1028 24-07-2016 13:35:00 23.8 C 83 % 20.74 C
1029 24-07-2016 13:40:00 23.9 C 79 % 20.03 C
1030 24-07-2016 13:45:00 23.9 C 76 % 19.41 C
1031 24-07-2016 13:50:00 24 C 80 % 20.33 C
1032 24-07-2016 13:55:00 24.1 C 77 % 19.81 C
1033 24-07-2016 14:00:00 24.2 C 76 % 19.7 C
1034 24-07-2016 14:05:00 24.3 C 76 % 19.8 C
1035 24-07-2016 14:10:00 24.3 C 76 % 19.8 C
1036 24-07-2016 14:15:00 24.5 C 77 % 20.2 C
1037 24-07-2016 14:20:00 24.6 C 74 % 19.66 C
1038 24-07-2016 14:25:00 24.6 C 73 % 19.44 C
1039 24-07-2016 14:30:00 24.7 C 75 % 19.97 C
1040 24-07-2016 14:35:00 24.7 C 73 % 19.53 C
1041 24-07-2016 14:40:00 24.7 C 73 % 19.53 C
1042 24-07-2016 14:45:00 24.7 C 74 % 19.75 C
1043 24-07-2016 14:50:00 24.7 C 82 % 21.42 C
1044 24-07-2016 14:55:00 24.7 C 76 % 20.18 C
1045 24-07-2016 15:00:00 24.8 C 74 % 19.85 C
1046 24-07-2016 15:05:00 25.2 C 75 % 20.45 C
1047 24-07-2016 15:10:00 25.6 C 70 % 19.72 C
1048 24-07-2016 15:15:00 25.8 C 70 % 19.91 C
1049 24-07-2016 15:20:00 25.9 C 69 % 19.77 C
1050 24-07-2016 15:25:00 25.9 C 70 % 20.01 C
Sensor: Nr:Datum:Temp:Feuchte:Taupunkt:
Aussen-T/F 1051 24-07-2016 15:30:00 26.1 C 67 % 19.49 C
1052 24-07-2016 15:35:00 26.3 C 66 % 19.44 C
1053 24-07-2016 15:40:00 26.6 C 66 % 19.72 C
1054 24-07-2016 15:45:00 27 C 63 % 19.35 C
1055 24-07-2016 15:50:00 27.3 C 63 % 19.63 C
1056 24-07-2016 15:55:00 27.4 C 59 % 18.68 C
1057 24-07-2016 16:00:00 27.7 C 63 % 20.01 C
1058 24-07-2016 16:05:00 28 C 59 % 19.24 C
1059 24-07-2016 16:10:00 28.1 C 64 % 20.64 C
1060 24-07-2016 16:15:00 28.2 C 70 % 22.2 C
1061 24-07-2016 16:20:00 28 C 60 % 19.51 C
1062 24-07-2016 16:25:00 27.8 C 59 % 19.05 C
1063 24-07-2016 16:30:00 28.1 C 67 % 21.39 C
1064 24-07-2016 16:35:00 28.1 C 64 % 20.64 C
1065 24-07-2016 16:40:00 27.9 C 62 % 19.94 C
1066 24-07-2016 16:45:00 27.6 C 63 % 19.92 C
1067 24-07-2016 16:50:00 27.5 C 60 % 19.04 C
1068 24-07-2016 16:55:00 27.6 C 71 % 21.86 C
1069 24-07-2016 17:00:00 27.5 C 65 % 20.33 C
1070 24-07-2016 17:05:00 27.8 C 74 % 22.73 C
1071 24-07-2016 17:10:00 27.9 C 61 % 19.68 C
1072 24-07-2016 17:15:00 28.2 C 61 % 19.96 C
1073 24-07-2016 17:20:00 28.3 C 60 % 19.79 C
1074 24-07-2016 17:25:00 28.4 C 59 % 19.61 C
1075 24-07-2016 17:30:00 28.5 C 57 % 19.15 C
Sensor: Nr:Datum:Temp:Feuchte:Taupunkt:
Aussen-T/F 1076 24-07-2016 17:35:00 28.6 C 58 % 19.52 C
1077 24-07-2016 17:40:00 28.7 C 63 % 20.95 C
1078 24-07-2016 17:45:00 28.7 C 57 % 19.34 C
1079 24-07-2016 17:50:00 28.8 C 59 % 19.99 C
1080 24-07-2016 17:55:00 29.1 C 56 % 19.42 C
1081 24-07-2016 18:00:00 29.2 C 57 % 19.8 C
1082 24-07-2016 18:05:00 29.1 C 57 % 19.71 C
1083 24-07-2016 18:10:00 28.9 C 56 % 19.24 C
1084 24-07-2016 18:15:00 28.9 C 58 % 19.8 C
1085 24-07-2016 18:20:00 28.7 C 59 % 19.89 C
1086 24-07-2016 18:25:00 28.5 C 60 % 19.98 C
1087 24-07-2016 18:30:00 28.2 C 62 % 20.22 C
1088 24-07-2016 18:35:00 28 C 62 % 20.04 C
1089 24-07-2016 18:40:00 27.8 C 60 % 19.32 C
1090 24-07-2016 18:45:00 27.8 C 69 % 21.59 C
1091 24-07-2016 18:50:00 27.6 C 71 % 21.86 C
1092 24-07-2016 18:55:00 27.5 C 67 % 20.82 C
1093 24-07-2016 19:00:00 27.7 C 64 % 20.27 C
1094 24-07-2016 19:05:00 28 C 67 % 21.3 C
1095 24-07-2016 19:10:00 28 C 62 % 20.04 C
1096 24-07-2016 19:15:00 28.1 C 63 % 20.39 C
1097 24-07-2016 19:20:00 28.1 C 63 % 20.39 C
1098 24-07-2016 19:25:00 28.1 C 68 % 21.63 C
1099 24-07-2016 19:30:00 27.9 C 63 % 20.2 C
1100 24-07-2016 19:35:00 27.7 C 69 % 21.49 C
Sensor: Nr:Datum:Temp:Feuchte:Taupunkt:
Aussen-T/F 1101 24-07-2016 19:40:00 27.6 C 72 % 22.09 C
1102 24-07-2016 19:45:00 27.3 C 73 % 22.03 C
1103 24-07-2016 19:50:00 27.1 C 73 % 21.84 C
1104 24-07-2016 19:55:00 26.7 C 74 % 21.68 C
1105 24-07-2016 20:00:00 26.4 C 75 % 21.61 C
1106 24-07-2016 20:05:00 26.1 C 75 % 21.32 C
1107 24-07-2016 20:10:00 25.7 C 75 % 20.93 C
1108 24-07-2016 20:15:00 25.4 C 77 % 21.07 C
1109 24-07-2016 20:20:00 25.1 C 77 % 20.78 C
1110 24-07-2016 20:25:00 24.8 C 78 % 20.7 C
1111 24-07-2016 20:30:00 24.6 C 79 % 20.71 C
1112 24-07-2016 20:35:00 24.3 C 80 % 20.63 C
1113 24-07-2016 20:40:00 24 C 80 % 20.33 C
1114 24-07-2016 20:45:00 23.7 C 81 % 20.24 C
1115 24-07-2016 20:50:00 23.4 C 81 % 19.95 C
1116 24-07-2016 20:55:00 23.2 C 82 % 19.95 C
1117 24-07-2016 21:00:00 22.9 C 82 % 19.66 C
1118 24-07-2016 21:05:00 22.8 C 83 % 19.76 C
1119 24-07-2016 21:10:00 22.6 C 83 % 19.56 C
1120 24-07-2016 21:15:00 22.3 C 84 % 19.46 C
1121 24-07-2016 21:20:00 22.1 C 84 % 19.27 C
1122 24-07-2016 21:25:00 21.9 C 84 % 19.07 C
1123 24-07-2016 21:30:00 21.8 C 85 % 19.16 C
1124 24-07-2016 21:35:00 21.6 C 85 % 18.97 C
1125 24-07-2016 21:40:00 21.5 C 85 % 18.87 C
Sensor: Nr:Datum:Temp:Feuchte:Taupunkt:
Aussen-T/F 1126 24-07-2016 21:45:00 21.4 C 85 % 18.77 C
1127 24-07-2016 21:50:00 21.3 C 85 % 18.67 C
1128 24-07-2016 21:55:00 21.2 C 86 % 18.76 C
1129 24-07-2016 22:00:00 21.2 C 86 % 18.76 C
1130 24-07-2016 22:05:00 21.1 C 87 % 18.85 C
1131 24-07-2016 22:10:00 21 C 87 % 18.75 C
1132 24-07-2016 22:15:00 20.9 C 87 % 18.65 C
1133 24-07-2016 22:20:00 20.8 C 87 % 18.56 C
1134 24-07-2016 22:25:00 20.7 C 88 % 18.64 C
1135 24-07-2016 22:30:00 20.7 C 88 % 18.64 C
1136 24-07-2016 22:35:00 20.6 C 89 % 18.72 C
1137 24-07-2016 22:40:00 20.4 C 89 % 18.53 C
1138 24-07-2016 22:45:00 20.4 C 89 % 18.53 C
1139 24-07-2016 22:50:00 20.3 C 90 % 18.61 C
1140 24-07-2016 22:55:00 20.3 C 90 % 18.61 C
1141 24-07-2016 23:00:00 20.3 C 90 % 18.61 C
1142 24-07-2016 23:05:00 20.3 C 91 % 18.78 C
1143 24-07-2016 23:10:00 20.3 C 91 % 18.78 C
1144 24-07-2016 23:15:00 20.3 C 91 % 18.78 C
1145 24-07-2016 23:20:00 20.3 C 91 % 18.78 C
1146 24-07-2016 23:25:00 20.3 C 91 % 18.78 C
1147 24-07-2016 23:30:00 20.2 C 91 % 18.68 C
1148 24-07-2016 23:35:00 20.2 C 91 % 18.68 C
1149 24-07-2016 23:40:00 20.1 C 91 % 18.58 C
1150 24-07-2016 23:45:00 20.1 C 91 % 18.58 C
Sensor: Nr:Datum:Temp:Feuchte:Taupunkt:
Aussen-T/F 1151 24-07-2016 23:50:00 19.9 C 91 % 18.39 C
1152 24-07-2016 23:55:00 19.9 C 91 % 18.39 C
1153 25-07-2016 00:00:00 19.8 C 91 % 18.29 C
1154 25-07-2016 00:05:00 19.8 C 91 % 18.29 C
1155 25-07-2016 00:10:00 19.7 C 92 % 18.36 C
1156 25-07-2016 00:15:00 19.7 C 92 % 18.36 C
1157 25-07-2016 00:20:00 19.8 C 92 % 18.46 C
1158 25-07-2016 00:25:00 19.8 C 92 % 18.46 C
1159 25-07-2016 00:30:00 19.8 C 92 % 18.46 C
1160 25-07-2016 00:35:00 19.8 C 92 % 18.46 C
1161 25-07-2016 00:40:00 19.8 C 92 % 18.46 C
1162 25-07-2016 00:45:00 19.8 C 92 % 18.46 C
1163 25-07-2016 00:50:00 19.8 C 92 % 18.46 C
1164 25-07-2016 00:55:00 19.8 C 92 % 18.46 C
1165 25-07-2016 01:00:00 19.8 C 92 % 18.46 C
1166 25-07-2016 01:05:00 19.8 C 92 % 18.46 C
1167 25-07-2016 01:10:00 19.8 C 92 % 18.46 C
1168 25-07-2016 01:15:00 19.8 C 92 % 18.46 C
1169 25-07-2016 01:20:00 19.8 C 92 % 18.46 C
1170 25-07-2016 01:25:00 19.8 C 92 % 18.46 C
1171 25-07-2016 01:30:00 19.7 C 92 % 18.36 C
1172 25-07-2016 01:35:00 19.7 C 92 % 18.36 C
1173 25-07-2016 01:40:00 19.6 C 92 % 18.26 C
1174 25-07-2016 01:45:00 19.5 C 92 % 18.17 C
1175 25-07-2016 01:50:00 19.3 C 91 % 17.79 C
Sensor: Nr:Datum:Temp:Feuchte:Taupunkt:
Aussen-T/F 1176 25-07-2016 01:55:00 19.3 C 92 % 17.97 C
1177 25-07-2016 02:00:00 19.2 C 92 % 17.87 C
1178 25-07-2016 02:05:00 19.2 C 92 % 17.87 C
1179 25-07-2016 02:10:00 19.2 C 92 % 17.87 C
1180 25-07-2016 02:15:00 19.1 C 92 % 17.77 C
1181 25-07-2016 02:20:00 18.9 C 92 % 17.57 C
1182 25-07-2016 02:25:00 18.8 C 92 % 17.47 C
1183 25-07-2016 02:30:00 18.7 C 92 % 17.37 C
1184 25-07-2016 02:35:00 18.6 C 92 % 17.27 C
1185 25-07-2016 02:40:00 18.6 C 93 % 17.45 C
1186 25-07-2016 02:45:00 18.5 C 93 % 17.35 C
1187 25-07-2016 02:50:00 18.5 C 93 % 17.35 C
1188 25-07-2016 02:55:00 18.5 C 94 % 17.52 C
1189 25-07-2016 03:00:00 18.6 C 94 % 17.62 C
1190 25-07-2016 03:05:00 18.6 C 94 % 17.62 C
1191 25-07-2016 03:10:00 18.6 C 94 % 17.62 C
1192 25-07-2016 03:15:00 18.4 C 94 % 17.42 C
1193 25-07-2016 03:20:00 18.4 C 93 % 17.25 C
1194 25-07-2016 03:25:00 18.3 C 94 % 17.32 C
1195 25-07-2016 03:30:00 18.3 C 94 % 17.32 C
1196 25-07-2016 03:35:00 18.2 C 94 % 17.22 C
1197 25-07-2016 03:40:00 18.2 C 94 % 17.22 C
1198 25-07-2016 03:45:00 18.2 C 94 % 17.22 C
1199 25-07-2016 03:50:00 18.1 C 94 % 17.12 C
1200 25-07-2016 03:55:00 18.1 C 94 % 17.12 C
Sensor: Nr:Datum:Temp:Feuchte:Taupunkt:
Aussen-T/F 1201 25-07-2016 04:00:00 18.1 C 94 % 17.12 C
1202 25-07-2016 04:05:00 18.1 C 94 % 17.12 C
1203 25-07-2016 04:10:00 18 C 94 % 17.02 C
1204 25-07-2016 04:15:00 17.9 C 94 % 16.92 C
1205 25-07-2016 04:20:00 17.9 C 94 % 16.92 C
1206 25-07-2016 04:25:00 17.8 C 94 % 16.82 C
1207 25-07-2016 04:30:00 17.8 C 94 % 16.82 C
1208 25-07-2016 04:35:00 17.8 C 95 % 16.99 C
1209 25-07-2016 04:40:00 17.8 C 95 % 16.99 C
1210 25-07-2016 04:45:00 17.8 C 95 % 16.99 C
1211 25-07-2016 04:50:00 17.8 C 95 % 16.99 C
1212 25-07-2016 04:55:00 17.8 C 95 % 16.99 C
1213 25-07-2016 05:00:00 17.7 C 95 % 16.89 C
1214 25-07-2016 05:05:00 17.7 C 95 % 16.89 C
1215 25-07-2016 05:10:00 17.6 C 95 % 16.79 C
1216 25-07-2016 05:15:00 17.6 C 95 % 16.79 C
1217 25-07-2016 05:20:00 17.5 C 95 % 16.69 C
1218 25-07-2016 05:25:00 17.5 C 95 % 16.69 C
1219 25-07-2016 05:30:00 17.5 C 95 % 16.69 C
1220 25-07-2016 05:35:00 17.6 C 95 % 16.79 C
1221 25-07-2016 05:40:00 17.6 C 95 % 16.79 C
1222 25-07-2016 05:45:00 17.6 C 95 % 16.79 C
1223 25-07-2016 05:50:00 17.5 C 95 % 16.69 C
1224 25-07-2016 05:55:00 17.5 C 95 % 16.69 C
1225 25-07-2016 06:00:00 17.4 C 95 % 16.59 C
Sensor: Nr:Datum:Temp:Feuchte:Taupunkt:
Aussen-T/F 1226 25-07-2016 06:05:00 17.3 C 95 % 16.49 C
1227 25-07-2016 06:10:00 17.3 C 95 % 16.49 C
1228 25-07-2016 06:15:00 17.2 C 95 % 16.39 C
1229 25-07-2016 06:20:00 17.3 C 95 % 16.49 C
1230 25-07-2016 06:25:00 17.3 C 95 % 16.49 C
1231 25-07-2016 06:30:00 17.3 C 95 % 16.49 C
1232 25-07-2016 06:35:00 17.4 C 95 % 16.59 C
1233 25-07-2016 06:40:00 17.4 C 95 % 16.59 C
1234 25-07-2016 06:45:00 17.5 C 96 % 16.85 C
1235 25-07-2016 06:50:00 17.6 C 96 % 16.95 C
1236 25-07-2016 06:55:00 17.7 C 96 % 17.05 C
1237 25-07-2016 07:00:00 17.7 C 96 % 17.05 C
1238 25-07-2016 07:05:00 17.8 C 96 % 17.15 C
1239 25-07-2016 07:10:00 17.9 C 96 % 17.25 C
1240 25-07-2016 07:15:00 17.9 C 96 % 17.25 C
1241 25-07-2016 07:20:00 18.1 C 96 % 17.45 C
1242 25-07-2016 07:25:00 18.2 C 96 % 17.55 C
1243 25-07-2016 07:30:00 18.3 C 96 % 17.65 C
1244 25-07-2016 07:35:00 18.3 C 96 % 17.65 C
1245 25-07-2016 07:40:00 18.4 C 96 % 17.75 C
1246 25-07-2016 07:45:00 18.4 C 95 % 17.58 C
1247 25-07-2016 07:50:00 18.6 C 95 % 17.78 C
1248 25-07-2016 07:55:00 18.6 C 95 % 17.78 C
1249 25-07-2016 08:00:00 18.7 C 95 % 17.88 C
1250 25-07-2016 08:05:00 18.8 C 95 % 17.98 C
Sensor: Nr:Datum:Temp:Feuchte:Taupunkt:
Aussen-T/F 1251 25-07-2016 08:10:00 18.9 C 95 % 18.08 C
1252 25-07-2016 08:15:00 19 C 95 % 18.18 C
1253 25-07-2016 08:20:00 19.1 C 95 % 18.28 C
1254 25-07-2016 08:25:00 19.1 C 94 % 18.11 C
1255 25-07-2016 08:30:00 19.1 C 94 % 18.11 C
1256 25-07-2016 08:35:00 19.2 C 94 % 18.21 C
1257 25-07-2016 08:40:00 19.3 C 94 % 18.31 C
1258 25-07-2016 08:45:00 19.4 C 94 % 18.41 C
1259 25-07-2016 08:50:00 19.6 C 94 % 18.61 C
1260 25-07-2016 08:55:00 19.7 C 94 % 18.71 C
1261 25-07-2016 09:00:00 19.7 C 93 % 18.54 C
1262 25-07-2016 09:05:00 19.8 C 93 % 18.63 C
1263 25-07-2016 09:10:00 20 C 93 % 18.83 C
1264 25-07-2016 09:15:00 20.1 C 93 % 18.93 C
1265 25-07-2016 09:20:00 20.1 C 92 % 18.76 C
1266 25-07-2016 09:25:00 20.2 C 91 % 18.68 C
1267 25-07-2016 09:30:00 20.2 C 90 % 18.51 C
1268 25-07-2016 09:35:00 20.3 C 91 % 18.78 C
1269 25-07-2016 09:40:00 20.3 C 88 % 18.25 C
1270 25-07-2016 09:45:00 20.5 C 90 % 18.8 C
1271 25-07-2016 09:50:00 20.6 C 86 % 18.18 C
1272 25-07-2016 09:55:00 20.7 C 87 % 18.46 C
1273 25-07-2016 10:00:00 20.8 C 85 % 18.18 C
1274 25-07-2016 10:05:00 21 C 86 % 18.57 C
1275 25-07-2016 10:10:00 21.1 C 86 % 18.67 C
Sensor: Nr:Datum:Temp:Feuchte:Taupunkt:
Aussen-T/F 1276 25-07-2016 10:15:00 21.2 C 84 % 18.39 C
1277 25-07-2016 10:20:00 21.3 C 83 % 18.29 C
1278 25-07-2016 10:25:00 21.5 C 81 % 18.1 C
1279 25-07-2016 10:30:00 21.8 C 84 % 18.97 C
1280 25-07-2016 10:35:00 22 C 79 % 18.19 C
1281 25-07-2016 10:40:00 22.2 C 77 % 17.98 C
1282 25-07-2016 10:45:00 22.4 C 76 % 17.96 C
1283 25-07-2016 10:50:00 22.6 C 76 % 18.15 C
1284 25-07-2016 10:55:00 22.7 C 80 % 19.07 C
1285 25-07-2016 11:00:00 22.6 C 73 % 17.51 C
1286 25-07-2016 11:05:00 22.7 C 76 % 18.25 C
1287 25-07-2016 11:10:00 22.7 C 73 % 17.61 C
1288 25-07-2016 11:15:00 22.8 C 72 % 17.49 C
1289 25-07-2016 11:20:00 23 C 73 % 17.9 C
1290 25-07-2016 11:25:00 23.1 C 77 % 18.85 C
1291 25-07-2016 11:30:00 23.2 C 71 % 17.65 C
1292 25-07-2016 11:35:00 23.2 C 74 % 18.31 C
1293 25-07-2016 11:40:00 23.4 C 77 % 19.14 C
1294 25-07-2016 11:45:00 23.4 C 69 % 17.39 C
1295 25-07-2016 11:50:00 23.6 C 69 % 17.58 C
1296 25-07-2016 11:55:00 23.7 C 69 % 17.67 C
1297 25-07-2016 12:00:00 23.7 C 69 % 17.67 C
1298 25-07-2016 12:05:00 23.8 C 69 % 17.77 C
1299 25-07-2016 12:10:00 23.9 C 69 % 17.87 C
1300 25-07-2016 12:15:00 24.1 C 69 % 18.06 C
Sensor: Nr:Datum:Temp:Feuchte:Taupunkt:
Aussen-T/F 1301 25-07-2016 12:20:00 24.2 C 68 % 17.92 C
1302 25-07-2016 12:25:00 24.2 C 67 % 17.68 C
1303 25-07-2016 12:30:00 24.2 C 69 % 18.15 C
1304 25-07-2016 12:35:00 24.2 C 72 % 18.83 C
1305 25-07-2016 12:40:00 24.2 C 70 % 18.38 C
1306 25-07-2016 12:45:00 24.2 C 72 % 18.83 C
1307 25-07-2016 12:50:00 24.2 C 74 % 19.27 C
1308 25-07-2016 12:55:00 24.1 C 74 % 19.17 C
1309 25-07-2016 13:00:00 24.1 C 73 % 18.96 C
1310 25-07-2016 13:05:00 24.1 C 72 % 18.73 C
1311 25-07-2016 13:10:00 24.1 C 75 % 19.39 C
1312 25-07-2016 13:15:00 24.1 C 74 % 19.17 C
1313 25-07-2016 13:20:00 24.2 C 73 % 19.05 C
1314 25-07-2016 13:25:00 24.5 C 71 % 18.89 C
1315 25-07-2016 13:30:00 24.8 C 69 % 18.72 C
1316 25-07-2016 13:35:00 24.9 C 70 % 19.05 C
1317 25-07-2016 13:40:00 24.8 C 75 % 20.06 C
1318 25-07-2016 13:45:00 24.7 C 76 % 20.18 C
1319 25-07-2016 13:50:00 24.4 C 73 % 19.24 C
1320 25-07-2016 13:55:00 24.3 C 77 % 20.01 C
1321 25-07-2016 14:00:00 24.3 C 78 % 20.22 C
1322 25-07-2016 14:05:00 24.3 C 71 % 18.7 C
1323 25-07-2016 14:10:00 24.6 C 70 % 18.76 C
1324 25-07-2016 14:15:00 24.8 C 69 % 18.72 C
1325 25-07-2016 14:20:00 25.1 C 67 % 18.54 C
Sensor: Nr:Datum:Temp:Feuchte:Taupunkt:
Aussen-T/F 1326 25-07-2016 14:25:00 25.3 C 67 % 18.73 C
1327 25-07-2016 14:30:00 25.4 C 68 % 19.06 C
1328 25-07-2016 14:35:00 25.5 C 69 % 19.39 C
1329 25-07-2016 14:40:00 25.5 C 68 % 19.16 C
1330 25-07-2016 14:45:00 25.6 C 65 % 18.53 C
1331 25-07-2016 14:50:00 25.7 C 72 % 20.27 C
1332 25-07-2016 14:55:00 25.7 C 68 % 19.35 C
1333 25-07-2016 15:00:00 25.8 C 68 % 19.44 C
1334 25-07-2016 15:05:00 25.9 C 63 % 18.31 C
1335 25-07-2016 15:10:00 26 C 65 % 18.91 C
1336 25-07-2016 15:15:00 26.1 C 72 % 20.65 C
1337 25-07-2016 15:20:00 25.9 C 63 % 18.31 C
1338 25-07-2016 15:25:00 26.1 C 62 % 18.25 C
1339 25-07-2016 15:30:00 26.3 C 63 % 18.69 C
1340 25-07-2016 15:35:00 26.5 C 65 % 19.38 C
1341 25-07-2016 15:40:00 26.2 C 68 % 19.82 C
1342 25-07-2016 15:45:00 25.9 C 73 % 20.69 C
1343 25-07-2016 15:50:00 25.7 C 67 % 19.11 C
1344 25-07-2016 15:55:00 25.9 C 64 % 18.57 C
1345 25-07-2016 16:00:00 26.5 C 66 % 19.63 C
1346 25-07-2016 16:05:00 26.7 C 67 % 20.06 C
1347 25-07-2016 16:10:00 26.6 C 62 % 18.72 C
1348 25-07-2016 16:15:00 26.6 C 59 % 17.93 C
1349 25-07-2016 16:20:00 26.6 C 59 % 17.93 C
1350 25-07-2016 16:25:00 26.4 C 60 % 18.01 C
Sensor: Nr:Datum:Temp:Feuchte:Taupunkt:
Aussen-T/F 1351 25-07-2016 16:30:00 26.3 C 61 % 18.18 C
1352 25-07-2016 16:35:00 26.3 C 61 % 18.18 C
1353 25-07-2016 16:40:00 26.2 C 60 % 17.82 C
1354 25-07-2016 16:45:00 26.2 C 62 % 18.34 C
1355 25-07-2016 16:50:00 26.2 C 62 % 18.34 C
1356 25-07-2016 16:55:00 26.3 C 60 % 17.91 C
1357 25-07-2016 17:00:00 26.3 C 59 % 17.65 C
1358 25-07-2016 17:05:00 26.3 C 60 % 17.91 C
1359 25-07-2016 17:10:00 26.3 C 64 % 18.94 C
1360 25-07-2016 17:15:00 26.2 C 68 % 19.82 C
1361 25-07-2016 17:20:00 26.1 C 70 % 20.2 C
1362 25-07-2016 17:25:00 25.8 C 64 % 18.47 C
1363 25-07-2016 17:30:00 25.8 C 70 % 19.91 C
1364 25-07-2016 17:35:00 25.8 C 73 % 20.59 C
1365 25-07-2016 17:40:00 25.8 C 74 % 20.81 C
1366 25-07-2016 17:45:00 25.7 C 64 % 18.38 C
1367 25-07-2016 17:50:00 25.6 C 65 % 18.53 C
1368 25-07-2016 17:55:00 25.5 C 63 % 17.94 C
1369 25-07-2016 18:00:00 25.6 C 63 % 18.03 C
1370 25-07-2016 18:05:00 25.7 C 72 % 20.27 C
1371 25-07-2016 18:10:00 25.6 C 75 % 20.84 C
1372 25-07-2016 18:15:00 25.2 C 70 % 19.34 C
1373 25-07-2016 18:20:00 24.9 C 76 % 20.38 C
1374 25-07-2016 18:25:00 24.7 C 76 % 20.18 C
1375 25-07-2016 18:30:00 24.6 C 78 % 20.51 C
Sensor: Nr:Datum:Temp:Feuchte:Taupunkt:
Aussen-T/F 1376 25-07-2016 18:35:00 24.3 C 78 % 20.22 C
1377 25-07-2016 18:40:00 24.3 C 80 % 20.63 C
1378 25-07-2016 18:45:00 24.3 C 80 % 20.63 C
1379 25-07-2016 18:50:00 24.7 C 76 % 20.18 C
1380 25-07-2016 18:55:00 25.3 C 68 % 18.97 C
1381 25-07-2016 19:00:00 25.9 C 75 % 21.13 C
1382 25-07-2016 19:05:00 25.9 C 75 % 21.13 C
1383 25-07-2016 19:10:00 25.7 C 75 % 20.93 C
1384 25-07-2016 19:15:00 25.3 C 76 % 20.76 C
1385 25-07-2016 19:20:00 24.8 C 78 % 20.7 C
1386 25-07-2016 19:25:00 24.5 C 79 % 20.62 C
1387 25-07-2016 19:30:00 24.3 C 80 % 20.63 C
1388 25-07-2016 19:35:00 24.3 C 72 % 18.93 C
1389 25-07-2016 19:40:00 24.6 C 72 % 19.21 C
1390 25-07-2016 19:45:00 24.9 C 68 % 18.59 C
1391 25-07-2016 19:50:00 25.2 C 70 % 19.34 C
1392 25-07-2016 19:55:00 25.3 C 66 % 18.49 C
1393 25-07-2016 20:00:00 25.4 C 65 % 18.34 C
1394 25-07-2016 20:05:00 25.6 C 67 % 19.01 C
1395 25-07-2016 20:10:00 25.6 C 67 % 19.01 C
1396 25-07-2016 20:15:00 25.7 C 65 % 18.62 C
1397 25-07-2016 20:20:00 25.7 C 65 % 18.62 C
1398 25-07-2016 20:25:00 25.7 C 66 % 18.87 C
1399 25-07-2016 20:30:00 25.5 C 65 % 18.44 C
1400 25-07-2016 20:35:00 25.3 C 68 % 18.97 C
Sensor: Nr:Datum:Temp:Feuchte:Taupunkt:
Aussen-T/F 1401 25-07-2016 20:40:00 25.1 C 69 % 19.01 C
1402 25-07-2016 20:45:00 24.8 C 68 % 18.49 C
1403 25-07-2016 20:50:00 24.6 C 68 % 18.3 C
1404 25-07-2016 20:55:00 24.4 C 69 % 18.34 C
1405 25-07-2016 21:00:00 24.2 C 71 % 18.61 C
1406 25-07-2016 21:05:00 23.9 C 76 % 19.41 C
1407 25-07-2016 21:10:00 23.4 C 77 % 19.14 C
1408 25-07-2016 21:15:00 23 C 78 % 18.96 C
1409 25-07-2016 21:20:00 22.6 C 80 % 18.97 C
1410 25-07-2016 21:25:00 22.3 C 81 % 18.88 C
1411 25-07-2016 21:30:00 22.2 C 83 % 19.17 C
1412 25-07-2016 21:35:00 22 C 83 % 18.98 C
1413 25-07-2016 21:40:00 21.8 C 83 % 18.78 C
1414 25-07-2016 21:45:00 21.8 C 84 % 18.97 C
1415 25-07-2016 21:50:00 21.8 C 84 % 18.97 C
1416 25-07-2016 21:55:00 21.7 C 84 % 18.88 C
1417 25-07-2016 22:00:00 21.7 C 84 % 18.88 C
1418 25-07-2016 22:05:00 21.7 C 84 % 18.88 C
1419 25-07-2016 22:10:00 21.7 C 83 % 18.69 C
1420 25-07-2016 22:15:00 21.7 C 83 % 18.69 C
1421 25-07-2016 22:20:00 21.7 C 84 % 18.88 C
1422 25-07-2016 22:25:00 21.7 C 84 % 18.88 C
1423 25-07-2016 22:30:00 21.6 C 84 % 18.78 C
1424 25-07-2016 22:35:00 21.5 C 83 % 18.49 C
1425 25-07-2016 22:40:00 21.5 C 84 % 18.68 C
Sensor: Nr:Datum:Temp:Feuchte:Taupunkt:
Aussen-T/F 1426 25-07-2016 22:45:00 21.4 C 84 % 18.58 C
1427 25-07-2016 22:50:00 21.3 C 84 % 18.49 C
1428 25-07-2016 22:55:00 21.2 C 84 % 18.39 C
1429 25-07-2016 23:00:00 21 C 84 % 18.19 C
1430 25-07-2016 23:05:00 20.8 C 84 % 18 C
1431 25-07-2016 23:10:00 20.7 C 85 % 18.09 C
1432 25-07-2016 23:15:00 20.6 C 85 % 17.99 C
1433 25-07-2016 23:20:00 20.5 C 85 % 17.89 C
1434 25-07-2016 23:25:00 20.4 C 85 % 17.79 C
1435 25-07-2016 23:30:00 20.4 C 86 % 17.98 C
1436 25-07-2016 23:35:00 20.3 C 86 % 17.88 C
1437 25-07-2016 23:40:00 20.2 C 85 % 17.6 C
1438 25-07-2016 23:45:00 20.2 C 86 % 17.78 C
1439 25-07-2016 23:50:00 20.1 C 86 % 17.68 C
1440 25-07-2016 23:55:00 19.9 C 87 % 17.67 C
1441 26-07-2016 00:00:00 19.8 C 87 % 17.57 C
1442 26-07-2016 00:05:00 19.8 C 87 % 17.57 C
1443 26-07-2016 00:10:00 19.7 C 88 % 17.66 C
1444 26-07-2016 00:15:00 19.7 C 88 % 17.66 C
1445 26-07-2016 00:20:00 19.7 C 88 % 17.66 C
1446 26-07-2016 00:25:00 19.6 C 88 % 17.56 C
1447 26-07-2016 00:30:00 19.6 C 88 % 17.56 C
1448 26-07-2016 00:35:00 19.4 C 89 % 17.54 C
1449 26-07-2016 00:40:00 19.3 C 89 % 17.44 C
1450 26-07-2016 00:45:00 19.3 C 89 % 17.44 C
Sensor: Nr:Datum:Temp:Feuchte:Taupunkt:
Aussen-T/F 1451 26-07-2016 00:50:00 19.2 C 90 % 17.52 C
1452 26-07-2016 00:55:00 19.2 C 90 % 17.52 C
1453 26-07-2016 01:00:00 19.1 C 90 % 17.42 C
1454 26-07-2016 01:05:00 19 C 91 % 17.5 C
1455 26-07-2016 01:10:00 18.9 C 91 % 17.4 C
1456 26-07-2016 01:15:00 18.9 C 91 % 17.4 C
1457 26-07-2016 01:20:00 18.8 C 91 % 17.3 C
1458 26-07-2016 01:25:00 18.7 C 91 % 17.2 C
1459 26-07-2016 01:30:00 18.7 C 91 % 17.2 C
1460 26-07-2016 01:35:00 18.6 C 92 % 17.27 C
1461 26-07-2016 01:40:00 18.6 C 92 % 17.27 C
1462 26-07-2016 01:45:00 18.5 C 92 % 17.18 C
1463 26-07-2016 01:50:00 18.4 C 92 % 17.08 C
1464 26-07-2016 01:55:00 18.4 C 92 % 17.08 C
1465 26-07-2016 02:00:00 18.3 C 92 % 16.98 C
1466 26-07-2016 02:05:00 18.2 C 92 % 16.88 C
1467 26-07-2016 02:10:00 18.2 C 92 % 16.88 C
1468 26-07-2016 02:15:00 18.1 C 93 % 16.95 C
1469 26-07-2016 02:20:00 18.1 C 93 % 16.95 C
1470 26-07-2016 02:25:00 18.1 C 93 % 16.95 C
1471 26-07-2016 02:30:00 18.1 C 93 % 16.95 C
1472 26-07-2016 02:35:00 18.1 C 93 % 16.95 C
1473 26-07-2016 02:40:00 18.1 C 93 % 16.95 C
1474 26-07-2016 02:45:00 18.2 C 94 % 17.22 C
1475 26-07-2016 02:50:00 18.2 C 94 % 17.22 C
Sensor: Nr:Datum:Temp:Feuchte:Taupunkt:
Aussen-T/F 1476 26-07-2016 02:55:00 18.2 C 94 % 17.22 C
1477 26-07-2016 03:00:00 18.2 C 94 % 17.22 C
1478 26-07-2016 03:05:00 18.2 C 94 % 17.22 C
1479 26-07-2016 03:10:00 18.2 C 93 % 17.05 C
1480 26-07-2016 03:15:00 18.1 C 93 % 16.95 C
1481 26-07-2016 03:20:00 18.1 C 93 % 16.95 C
1482 26-07-2016 03:25:00 18 C 93 % 16.85 C
1483 26-07-2016 03:30:00 18 C 93 % 16.85 C
1484 26-07-2016 03:35:00 17.9 C 93 % 16.75 C
1485 26-07-2016 03:40:00 17.9 C 93 % 16.75 C
1486 26-07-2016 03:45:00 17.9 C 94 % 16.92 C
1487 26-07-2016 03:50:00 17.9 C 94 % 16.92 C
1488 26-07-2016 03:55:00 17.9 C 94 % 16.92 C
1489 26-07-2016 04:00:00 17.9 C 94 % 16.92 C
1490 26-07-2016 04:05:00 17.9 C 94 % 16.92 C
1491 26-07-2016 04:10:00 17.9 C 94 % 16.92 C
1492 26-07-2016 04:15:00 17.9 C 94 % 16.92 C
1493 26-07-2016 04:20:00 17.9 C 94 % 16.92 C
1494 26-07-2016 04:25:00 17.9 C 94 % 16.92 C
1495 26-07-2016 04:30:00 17.9 C 94 % 16.92 C
1496 26-07-2016 04:35:00 17.9 C 94 % 16.92 C
1497 26-07-2016 04:40:00 17.9 C 94 % 16.92 C
1498 26-07-2016 04:45:00 17.9 C 94 % 16.92 C
1499 26-07-2016 04:50:00 17.9 C 94 % 16.92 C
1500 26-07-2016 04:55:00 17.8 C 94 % 16.82 C
Sensor: Nr:Datum:Temp:Feuchte:Taupunkt:
Aussen-T/F 1501 26-07-2016 05:00:00 17.8 C 94 % 16.82 C
1502 26-07-2016 05:05:00 17.8 C 94 % 16.82 C
1503 26-07-2016 05:10:00 17.7 C 94 % 16.72 C
1504 26-07-2016 05:15:00 17.7 C 94 % 16.72 C
1505 26-07-2016 05:20:00 17.7 C 94 % 16.72 C
1506 26-07-2016 05:25:00 17.6 C 94 % 16.62 C
1507 26-07-2016 05:30:00 17.6 C 94 % 16.62 C
1508 26-07-2016 05:35:00 17.4 C 94 % 16.42 C
1509 26-07-2016 05:40:00 17.4 C 94 % 16.42 C
1510 26-07-2016 05:45:00 17.3 C 94 % 16.33 C
1511 26-07-2016 05:50:00 17.3 C 94 % 16.33 C
1512 26-07-2016 05:55:00 17.3 C 95 % 16.49 C
1513 26-07-2016 06:00:00 17.3 C 95 % 16.49 C
1514 26-07-2016 06:05:00 17.4 C 95 % 16.59 C
1515 26-07-2016 06:10:00 17.4 C 95 % 16.59 C
1516 26-07-2016 06:15:00 17.4 C 95 % 16.59 C
1517 26-07-2016 06:20:00 17.5 C 95 % 16.69 C
1518 26-07-2016 06:25:00 17.6 C 95 % 16.79 C
1519 26-07-2016 06:30:00 17.6 C 95 % 16.79 C
1520 26-07-2016 06:35:00 17.7 C 95 % 16.89 C
1521 26-07-2016 06:40:00 17.7 C 95 % 16.89 C
1522 26-07-2016 06:45:00 17.8 C 95 % 16.99 C
1523 26-07-2016 06:50:00 17.8 C 95 % 16.99 C
1524 26-07-2016 06:55:00 17.9 C 95 % 17.09 C
1525 26-07-2016 07:00:00 18 C 95 % 17.19 C
Sensor: Nr:Datum:Temp:Feuchte:Taupunkt:
Aussen-T/F 1526 26-07-2016 07:05:00 18.1 C 95 % 17.29 C
1527 26-07-2016 07:10:00 18.2 C 95 % 17.39 C
1528 26-07-2016 07:15:00 18.4 C 96 % 17.75 C
1529 26-07-2016 07:20:00 18.4 C 95 % 17.58 C
1530 26-07-2016 07:25:00 18.5 C 95 % 17.68 C
1531 26-07-2016 07:30:00 18.6 C 95 % 17.78 C
1532 26-07-2016 07:35:00 18.6 C 95 % 17.78 C
1533 26-07-2016 07:40:00 18.7 C 95 % 17.88 C
1534 26-07-2016 07:45:00 18.7 C 95 % 17.88 C
1535 26-07-2016 07:50:00 18.8 C 94 % 17.81 C
1536 26-07-2016 07:55:00 18.9 C 94 % 17.91 C
1537 26-07-2016 08:00:00 19 C 94 % 18.01 C
1538 26-07-2016 08:05:00 19.1 C 93 % 17.94 C
1539 26-07-2016 08:10:00 19.2 C 93 % 18.04 C
1540 26-07-2016 08:15:00 19.2 C 92 % 17.87 C
1541 26-07-2016 08:20:00 19.3 C 92 % 17.97 C
1542 26-07-2016 08:25:00 19.4 C 92 % 18.07 C
1543 26-07-2016 08:30:00 19.5 C 91 % 17.99 C
1544 26-07-2016 08:35:00 19.7 C 91 % 18.19 C
1545 26-07-2016 08:40:00 19.8 C 91 % 18.29 C
1546 26-07-2016 08:45:00 20 C 90 % 18.31 C
1547 26-07-2016 08:50:00 20.1 C 90 % 18.41 C
1548 26-07-2016 08:55:00 20.2 C 89 % 18.33 C
1549 26-07-2016 09:00:00 20.3 C 89 % 18.43 C
1550 26-07-2016 09:05:00 20.3 C 89 % 18.43 C
Sensor: Nr:Datum:Temp:Feuchte:Taupunkt:
Aussen-T/F 1551 26-07-2016 09:10:00 20.4 C 89 % 18.53 C
1552 26-07-2016 09:15:00 20.5 C 88 % 18.44 C
1553 26-07-2016 09:20:00 20.6 C 88 % 18.54 C
1554 26-07-2016 09:25:00 20.7 C 88 % 18.64 C
1555 26-07-2016 09:30:00 20.8 C 88 % 18.74 C
1556 26-07-2016 09:35:00 20.8 C 88 % 18.74 C
1557 26-07-2016 09:40:00 20.8 C 87 % 18.56 C
1558 26-07-2016 09:45:00 20.8 C 88 % 18.74 C
1559 26-07-2016 09:50:00 20.8 C 88 % 18.74 C
1560 26-07-2016 09:55:00 20.8 C 87 % 18.56 C
1561 26-07-2016 10:00:00 20.8 C 88 % 18.74 C
1562 26-07-2016 10:05:00 20.8 C 88 % 18.74 C
1563 26-07-2016 10:10:00 20.8 C 87 % 18.56 C
1564 26-07-2016 10:15:00 20.7 C 87 % 18.46 C
1565 26-07-2016 10:20:00 20.7 C 88 % 18.64 C
1566 26-07-2016 10:25:00 20.7 C 87 % 18.46 C
1567 26-07-2016 10:30:00 20.6 C 87 % 18.36 C
1568 26-07-2016 10:35:00 20.7 C 88 % 18.64 C
1569 26-07-2016 10:40:00 20.6 C 87 % 18.36 C
1570 26-07-2016 10:45:00 20.7 C 87 % 18.46 C
1571 26-07-2016 10:50:00 20.6 C 87 % 18.36 C
1572 26-07-2016 10:55:00 20.7 C 88 % 18.64 C
1573 26-07-2016 11:00:00 20.8 C 89 % 18.92 C
1574 26-07-2016 11:05:00 20.9 C 89 % 19.02 C
1575 26-07-2016 11:10:00 20.8 C 88 % 18.74 C
Sensor: Nr:Datum:Temp:Feuchte:Taupunkt:
Aussen-T/F 1576 26-07-2016 11:15:00 20.7 C 87 % 18.46 C
1577 26-07-2016 11:20:00 20.7 C 88 % 18.64 C
1578 26-07-2016 11:25:00 20.6 C 88 % 18.54 C
1579 26-07-2016 11:30:00 20.6 C 87 % 18.36 C
1580 26-07-2016 11:35:00 20.7 C 86 % 18.27 C
1581 26-07-2016 11:40:00 20.8 C 86 % 18.37 C
1582 26-07-2016 11:45:00 21 C 85 % 18.38 C
1583 26-07-2016 11:50:00 21.3 C 84 % 18.49 C
1584 26-07-2016 11:55:00 21.4 C 83 % 18.39 C
1585 26-07-2016 12:00:00 21.6 C 84 % 18.78 C
1586 26-07-2016 12:05:00 21.7 C 83 % 18.69 C
1587 26-07-2016 12:10:00 21.8 C 84 % 18.97 C
1588 26-07-2016 12:15:00 21.9 C 82 % 18.69 C
1589 26-07-2016 12:20:00 22.1 C 82 % 18.88 C
1590 26-07-2016 12:25:00 22.1 C 81 % 18.69 C
1591 26-07-2016 12:30:00 22.2 C 82 % 18.98 C
1592 26-07-2016 12:35:00 22.3 C 82 % 19.08 C
1593 26-07-2016 12:40:00 22.5 C 83 % 19.47 C
1594 26-07-2016 12:45:00 22.7 C 82 % 19.47 C
1595 26-07-2016 12:50:00 22.7 C 79 % 18.87 C
1596 26-07-2016 12:55:00 22.7 C 80 % 19.07 C
1597 26-07-2016 13:00:00 22.8 C 79 % 18.97 C
1598 26-07-2016 13:05:00 22.9 C 79 % 19.06 C
1599 26-07-2016 13:10:00 22.9 C 79 % 19.06 C
1600 26-07-2016 13:15:00 22.9 C 79 % 19.06 C
Sensor: Nr:Datum:Temp:Feuchte:Taupunkt:
Aussen-T/F 1601 26-07-2016 13:20:00 23.1 C 79 % 19.26 C
1602 26-07-2016 13:25:00 23.2 C 79 % 19.35 C
1603 26-07-2016 13:30:00 23.3 C 79 % 19.45 C
1604 26-07-2016 13:35:00 23.5 C 80 % 19.85 C
1605 26-07-2016 13:40:00 23.6 C 78 % 19.54 C
1606 26-07-2016 13:45:00 23.7 C 76 % 19.22 C
1607 26-07-2016 13:50:00 23.7 C 77 % 19.43 C
1608 26-07-2016 13:55:00 23.8 C 78 % 19.73 C
1609 26-07-2016 14:00:00 23.8 C 77 % 19.52 C
1610 26-07-2016 14:05:00 23.9 C 77 % 19.62 C
1611 26-07-2016 14:10:00 24 C 76 % 19.51 C
1612 26-07-2016 14:15:00 24.1 C 76 % 19.6 C
1613 26-07-2016 14:20:00 24.3 C 76 % 19.8 C
1614 26-07-2016 14:25:00 24.3 C 75 % 19.58 C
1615 26-07-2016 14:30:00 24.3 C 76 % 19.8 C
1616 26-07-2016 14:35:00 24.3 C 74 % 19.37 C
1617 26-07-2016 14:40:00 24.3 C 75 % 19.58 C
1618 26-07-2016 14:45:00 24.3 C 72 % 18.93 C
1619 26-07-2016 14:50:00 24.3 C 73 % 19.15 C
1620 26-07-2016 14:55:00 24.3 C 73 % 19.15 C
1621 26-07-2016 15:00:00 24.3 C 75 % 19.58 C
1622 26-07-2016 15:05:00 24.3 C 73 % 19.15 C
1623 26-07-2016 15:10:00 24.3 C 73 % 19.15 C
1624 26-07-2016 15:15:00 24.3 C 73 % 19.15 C
1625 26-07-2016 15:20:00 24.3 C 73 % 19.15 C
Sensor: Nr:Datum:Temp:Feuchte:Taupunkt:
Aussen-T/F 1626 26-07-2016 15:25:00 24.3 C 72 % 18.93 C
1627 26-07-2016 15:30:00 24.2 C 72 % 18.83 C
1628 26-07-2016 15:35:00 24.1 C 73 % 18.96 C
1629 26-07-2016 15:40:00 24 C 72 % 18.64 C
1630 26-07-2016 15:45:00 24 C 74 % 19.08 C
1631 26-07-2016 15:50:00 23.9 C 74 % 18.98 C
1632 26-07-2016 15:55:00 23.9 C 75 % 19.2 C
1633 26-07-2016 16:00:00 23.9 C 74 % 18.98 C
1634 26-07-2016 16:05:00 23.8 C 75 % 19.1 C
1635 26-07-2016 16:10:00 23.6 C 75 % 18.91 C
1636 26-07-2016 16:15:00 23.4 C 75 % 18.71 C
1637 26-07-2016 16:20:00 23.2 C 76 % 18.73 C
1638 26-07-2016 16:25:00 23.2 C 76 % 18.73 C
1639 26-07-2016 16:30:00 23.1 C 76 % 18.64 C
1640 26-07-2016 16:35:00 22.9 C 77 % 18.65 C
1641 26-07-2016 16:40:00 22.7 C 78 % 18.67 C
1642 26-07-2016 16:45:00 22.4 C 80 % 18.78 C
1643 26-07-2016 16:50:00 22.2 C 81 % 18.78 C
1644 26-07-2016 16:55:00 22.1 C 81 % 18.69 C
1645 26-07-2016 17:00:00 21.9 C 81 % 18.49 C
1646 26-07-2016 17:05:00 21.7 C 81 % 18.3 C
1647 26-07-2016 17:10:00 21.6 C 81 % 18.2 C
1648 26-07-2016 17:15:00 21.5 C 81 % 18.1 C
1649 26-07-2016 17:20:00 21.4 C 81 % 18 C
1650 26-07-2016 17:25:00 21.4 C 81 % 18 C
Sensor: Nr:Datum:Temp:Feuchte:Taupunkt:
Aussen-T/F 1651 26-07-2016 17:30:00 21.3 C 81 % 17.91 C
1652 26-07-2016 17:35:00 21.3 C 81 % 17.91 C
1653 26-07-2016 17:40:00 21.7 C 80 % 18.1 C
1654 26-07-2016 17:45:00 22.1 C 78 % 18.08 C
1655 26-07-2016 17:50:00 22.3 C 78 % 18.28 C
1656 26-07-2016 17:55:00 22.6 C 77 % 18.36 C
1657 26-07-2016 18:00:00 22.7 C 76 % 18.25 C
1658 26-07-2016 18:05:00 22.8 C 76 % 18.35 C
1659 26-07-2016 18:10:00 22.8 C 76 % 18.35 C
1660 26-07-2016 18:15:00 22.8 C 76 % 18.35 C
1661 26-07-2016 18:20:00 22.8 C 76 % 18.35 C
1662 26-07-2016 18:25:00 22.7 C 77 % 18.46 C
1663 26-07-2016 18:30:00 22.7 C 77 % 18.46 C
1664 26-07-2016 18:35:00 22.7 C 77 % 18.46 C
1665 26-07-2016 18:40:00 22.6 C 77 % 18.36 C
1666 26-07-2016 18:45:00 22.6 C 76 % 18.15 C
1667 26-07-2016 18:50:00 22.3 C 77 % 18.07 C
1668 26-07-2016 18:55:00 22 C 77 % 17.78 C
1669 26-07-2016 19:00:00 21.8 C 79 % 18 C
1670 26-07-2016 19:05:00 21.7 C 79 % 17.9 C
1671 26-07-2016 19:10:00 21.7 C 80 % 18.1 C
1672 26-07-2016 19:15:00 21.6 C 80 % 18 C
1673 26-07-2016 19:20:00 21.6 C 80 % 18 C
1674 26-07-2016 19:25:00 21.6 C 79 % 17.8 C
1675 26-07-2016 19:30:00 21.7 C 80 % 18.1 C
Sensor: Nr:Datum:Temp:Feuchte:Taupunkt:
Aussen-T/F 1676 26-07-2016 19:35:00 21.7 C 79 % 17.9 C
1677 26-07-2016 19:40:00 21.7 C 79 % 17.9 C
1678 26-07-2016 19:45:00 21.6 C 80 % 18 C
1679 26-07-2016 19:50:00 21.6 C 81 % 18.2 C
1680 26-07-2016 19:55:00 21.6 C 80 % 18 C
1681 26-07-2016 20:00:00 21.7 C 80 % 18.1 C
1682 26-07-2016 20:05:00 21.7 C 79 % 17.9 C
1683 26-07-2016 20:10:00 21.6 C 79 % 17.8 C
1684 26-07-2016 20:15:00 21.4 C 80 % 17.81 C
1685 26-07-2016 20:20:00 21.1 C 80 % 17.51 C
1686 26-07-2016 20:25:00 20.9 C 81 % 17.52 C
1687 26-07-2016 20:30:00 20.7 C 81 % 17.32 C
1688 26-07-2016 20:35:00 20.4 C 82 % 17.22 C
1689 26-07-2016 20:40:00 20.3 C 83 % 17.32 C
1690 26-07-2016 20:45:00 20.2 C 83 % 17.22 C
1691 26-07-2016 20:50:00 20 C 83 % 17.02 C
1692 26-07-2016 20:55:00 19.9 C 84 % 17.12 C
1693 26-07-2016 21:00:00 19.8 C 85 % 17.21 C
1694 26-07-2016 21:05:00 19.7 C 85 % 17.11 C
1695 26-07-2016 21:10:00 19.5 C 86 % 17.1 C
1696 26-07-2016 21:15:00 19.3 C 86 % 16.9 C
1697 26-07-2016 21:20:00 19.1 C 87 % 16.89 C
1698 26-07-2016 21:25:00 18.9 C 87 % 16.69 C
1699 26-07-2016 21:30:00 18.8 C 87 % 16.59 C
1700 26-07-2016 21:35:00 18.6 C 88 % 16.57 C
Sensor: Nr:Datum:Temp:Feuchte:Taupunkt:
Aussen-T/F 1701 26-07-2016 21:40:00 18.4 C 88 % 16.38 C
1702 26-07-2016 21:45:00 18.3 C 89 % 16.46 C
1703 26-07-2016 21:50:00 18.1 C 89 % 16.26 C
1704 26-07-2016 21:55:00 18 C 89 % 16.16 C
1705 26-07-2016 22:00:00 17.8 C 90 % 16.14 C
1706 26-07-2016 22:05:00 17.8 C 90 % 16.14 C
1707 26-07-2016 22:10:00 17.7 C 90 % 16.04 C
1708 26-07-2016 22:15:00 17.6 C 91 % 16.11 C
1709 26-07-2016 22:20:00 17.4 C 91 % 15.92 C
1710 26-07-2016 22:25:00 17.4 C 91 % 15.92 C
1711 26-07-2016 22:30:00 17.3 C 91 % 15.82 C
1712 26-07-2016 22:35:00 17.3 C 92 % 15.99 C
1713 26-07-2016 22:40:00 17.3 C 92 % 15.99 C
1714 26-07-2016 22:45:00 17.3 C 92 % 15.99 C
1715 26-07-2016 22:50:00 17.2 C 92 % 15.89 C
1716 26-07-2016 22:55:00 17.2 C 92 % 15.89 C
1717 26-07-2016 23:00:00 17.2 C 92 % 15.89 C
1718 26-07-2016 23:05:00 17.2 C 93 % 16.06 C
1719 26-07-2016 23:10:00 17.3 C 93 % 16.16 C
1720 26-07-2016 23:15:00 17.3 C 93 % 16.16 C
1721 26-07-2016 23:20:00 17.3 C 93 % 16.16 C
1722 26-07-2016 23:25:00 17.2 C 92 % 15.89 C
1723 26-07-2016 23:30:00 17.2 C 92 % 15.89 C
1724 26-07-2016 23:35:00 17.1 C 92 % 15.79 C
1725 26-07-2016 23:40:00 17.1 C 92 % 15.79 C
Sensor: Nr:Datum:Temp:Feuchte:Taupunkt:
Aussen-T/F 1726 26-07-2016 23:45:00 17 C 93 % 15.86 C
1727 26-07-2016 23:50:00 17 C 93 % 15.86 C
1728 26-07-2016 23:55:00 16.9 C 93 % 15.76 C
1729 27-07-2016 00:00:00 16.9 C 93 % 15.76 C
1730 27-07-2016 00:05:00 16.9 C 93 % 15.76 C
1731 27-07-2016 00:10:00 16.8 C 93 % 15.66 C
1732 27-07-2016 00:15:00 16.8 C 93 % 15.66 C
1733 27-07-2016 00:20:00 16.8 C 93 % 15.66 C
1734 27-07-2016 00:25:00 16.7 C 93 % 15.56 C
1735 27-07-2016 00:30:00 16.6 C 93 % 15.46 C
1736 27-07-2016 00:35:00 16.6 C 93 % 15.46 C
1737 27-07-2016 00:40:00 16.5 C 93 % 15.36 C
1738 27-07-2016 00:45:00 16.4 C 93 % 15.27 C
1739 27-07-2016 00:50:00 16.3 C 93 % 15.17 C
1740 27-07-2016 00:55:00 16.3 C 93 % 15.17 C
1741 27-07-2016 01:00:00 16.3 C 93 % 15.17 C
1742 27-07-2016 01:05:00 16.2 C 94 % 15.23 C
1743 27-07-2016 01:10:00 16.3 C 94 % 15.33 C
1744 27-07-2016 01:15:00 16.2 C 93 % 15.07 C
1745 27-07-2016 01:20:00 16.2 C 94 % 15.23 C
1746 27-07-2016 01:25:00 16.1 C 93 % 14.97 C
1747 27-07-2016 01:30:00 15.9 C 93 % 14.77 C
1748 27-07-2016 01:35:00 15.9 C 94 % 14.94 C
1749 27-07-2016 01:40:00 15.9 C 94 % 14.94 C
1750 27-07-2016 01:45:00 15.8 C 94 % 14.84 C
Sensor: Nr:Datum:Temp:Feuchte:Taupunkt:
Aussen-T/F 1751 27-07-2016 01:50:00 15.8 C 94 % 14.84 C
1752 27-07-2016 01:55:00 15.8 C 94 % 14.84 C
1753 27-07-2016 02:00:00 15.7 C 94 % 14.74 C
1754 27-07-2016 02:05:00 15.8 C 94 % 14.84 C
1755 27-07-2016 02:10:00 15.9 C 95 % 15.1 C
1756 27-07-2016 02:15:00 15.9 C 95 % 15.1 C
1757 27-07-2016 02:20:00 16.1 C 95 % 15.3 C
1758 27-07-2016 02:25:00 16.1 C 95 % 15.3 C
1759 27-07-2016 02:30:00 16.2 C 95 % 15.4 C
1760 27-07-2016 02:35:00 16.2 C 95 % 15.4 C
1761 27-07-2016 02:40:00 16.2 C 95 % 15.4 C
1762 27-07-2016 02:45:00 16.3 C 95 % 15.5 C
1763 27-07-2016 02:50:00 16.3 C 95 % 15.5 C
1764 27-07-2016 02:55:00 16.3 C 95 % 15.5 C
1765 27-07-2016 03:00:00 16.3 C 95 % 15.5 C
1766 27-07-2016 03:05:00 16.2 C 95 % 15.4 C
1767 27-07-2016 03:10:00 16.2 C 95 % 15.4 C
1768 27-07-2016 03:15:00 16.1 C 95 % 15.3 C
1769 27-07-2016 03:20:00 16.1 C 95 % 15.3 C
1770 27-07-2016 03:25:00 16 C 95 % 15.2 C
1771 27-07-2016 03:30:00 15.9 C 95 % 15.1 C
1772 27-07-2016 03:35:00 15.9 C 95 % 15.1 C
1773 27-07-2016 03:40:00 15.8 C 95 % 15 C
1774 27-07-2016 03:45:00 15.8 C 95 % 15 C
1775 27-07-2016 03:50:00 15.8 C 95 % 15 C
Sensor: Nr:Datum:Temp:Feuchte:Taupunkt:
Aussen-T/F 1776 27-07-2016 03:55:00 15.7 C 95 % 14.9 C
1777 27-07-2016 04:00:00 15.7 C 95 % 14.9 C
1778 27-07-2016 04:05:00 15.7 C 95 % 14.9 C
1779 27-07-2016 04:10:00 15.7 C 95 % 14.9 C
1780 27-07-2016 04:15:00 15.7 C 95 % 14.9 C
1781 27-07-2016 04:20:00 15.8 C 95 % 15 C
1782 27-07-2016 04:25:00 15.8 C 95 % 15 C
1783 27-07-2016 04:30:00 15.8 C 95 % 15 C
1784 27-07-2016 04:35:00 15.8 C 95 % 15 C
1785 27-07-2016 04:40:00 15.8 C 95 % 15 C
1786 27-07-2016 04:45:00 15.8 C 96 % 15.16 C
1787 27-07-2016 04:50:00 15.8 C 96 % 15.16 C
1788 27-07-2016 04:55:00 15.9 C 96 % 15.26 C
1789 27-07-2016 05:00:00 15.9 C 96 % 15.26 C
1790 27-07-2016 05:05:00 15.9 C 96 % 15.26 C
1791 27-07-2016 05:10:00 15.9 C 96 % 15.26 C
1792 27-07-2016 05:15:00 15.9 C 96 % 15.26 C
1793 27-07-2016 05:20:00 15.8 C 96 % 15.16 C
1794 27-07-2016 05:25:00 15.8 C 95 % 15 C
1795 27-07-2016 05:30:00 15.8 C 95 % 15 C
1796 27-07-2016 05:35:00 15.7 C 95 % 14.9 C
1797 27-07-2016 05:40:00 15.7 C 95 % 14.9 C
1798 27-07-2016 05:45:00 15.6 C 95 % 14.8 C
1799 27-07-2016 05:50:00 15.6 C 95 % 14.8 C
1800 27-07-2016 05:55:00 15.6 C 95 % 14.8 C
Sensor: Nr:Datum:Temp:Feuchte:Taupunkt:
Aussen-T/F 1801 27-07-2016 06:00:00 15.6 C 95 % 14.8 C
1802 27-07-2016 06:05:00 15.5 C 95 % 14.7 C
1803 27-07-2016 06:10:00 15.4 C 95 % 14.6 C
1804 27-07-2016 06:15:00 15.4 C 95 % 14.6 C
1805 27-07-2016 06:20:00 15.4 C 96 % 14.77 C
1806 27-07-2016 06:25:00 15.4 C 96 % 14.77 C
1807 27-07-2016 06:30:00 15.4 C 96 % 14.77 C
1808 27-07-2016 06:35:00 15.5 C 96 % 14.86 C
1809 27-07-2016 06:40:00 15.6 C 96 % 14.96 C
1810 27-07-2016 06:45:00 15.6 C 96 % 14.96 C
1811 27-07-2016 06:50:00 15.7 C 96 % 15.06 C
1812 27-07-2016 06:55:00 15.7 C 96 % 15.06 C
1813 27-07-2016 07:00:00 15.7 C 96 % 15.06 C
1814 27-07-2016 07:05:00 15.7 C 96 % 15.06 C
1815 27-07-2016 07:10:00 15.8 C 96 % 15.16 C
1816 27-07-2016 07:15:00 15.8 C 96 % 15.16 C
1817 27-07-2016 07:20:00 15.8 C 96 % 15.16 C
1818 27-07-2016 07:25:00 15.9 C 96 % 15.26 C
1819 27-07-2016 07:30:00 16 C 96 % 15.36 C
1820 27-07-2016 07:35:00 16.1 C 96 % 15.46 C
1821 27-07-2016 07:40:00 16.1 C 96 % 15.46 C
1822 27-07-2016 07:45:00 16.1 C 96 % 15.46 C
1823 27-07-2016 07:50:00 16.1 C 96 % 15.46 C
1824 27-07-2016 07:55:00 16.2 C 96 % 15.56 C
1825 27-07-2016 08:00:00 16.3 C 96 % 15.66 C
Sensor: Nr:Datum:Temp:Feuchte:Taupunkt:
Aussen-T/F 1826 27-07-2016 08:05:00 16.3 C 96 % 15.66 C
1827 27-07-2016 08:10:00 16.4 C 96 % 15.76 C
1828 27-07-2016 08:15:00 16.5 C 96 % 15.86 C
1829 27-07-2016 08:20:00 16.4 C 95 % 15.6 C
1830 27-07-2016 08:25:00 16.4 C 95 % 15.6 C
1831 27-07-2016 08:30:00 16.4 C 95 % 15.6 C
1832 27-07-2016 08:35:00 16.5 C 95 % 15.7 C
1833 27-07-2016 08:40:00 16.6 C 94 % 15.63 C
1834 27-07-2016 08:45:00 16.7 C 94 % 15.73 C
1835 27-07-2016 08:50:00 16.7 C 94 % 15.73 C
1836 27-07-2016 08:55:00 16.8 C 94 % 15.83 C
1837 27-07-2016 09:00:00 16.8 C 94 % 15.83 C
1838 27-07-2016 09:05:00 17 C 94 % 16.03 C
1839 27-07-2016 09:10:00 17.1 C 93 % 15.96 C
1840 27-07-2016 09:15:00 17.2 C 93 % 16.06 C
1841 27-07-2016 09:20:00 17.3 C 92 % 15.99 C
1842 27-07-2016 09:25:00 17.6 C 92 % 16.28 C
1843 27-07-2016 09:30:00 17.7 C 92 % 16.38 C
1844 27-07-2016 09:35:00 17.8 C 91 % 16.31 C
1845 27-07-2016 09:40:00 18 C 90 % 16.34 C
1846 27-07-2016 09:45:00 18.2 C 90 % 16.53 C
1847 27-07-2016 09:50:00 18.3 C 90 % 16.63 C
1848 27-07-2016 09:55:00 18.3 C 90 % 16.63 C
1849 27-07-2016 10:00:00 18.3 C 90 % 16.63 C
1850 27-07-2016 10:05:00 18.3 C 91 % 16.81 C
Sensor: Nr:Datum:Temp:Feuchte:Taupunkt:
Aussen-T/F 1851 27-07-2016 10:10:00 18.3 C 89 % 16.46 C
1852 27-07-2016 10:15:00 18.4 C 88 % 16.38 C
1853 27-07-2016 10:20:00 18.5 C 87 % 16.3 C
1854 27-07-2016 10:25:00 18.8 C 86 % 16.41 C
1855 27-07-2016 10:30:00 18.9 C 87 % 16.69 C
1856 27-07-2016 10:35:00 19.1 C 86 % 16.7 C
1857 27-07-2016 10:40:00 19.3 C 85 % 16.72 C
1858 27-07-2016 10:45:00 19.5 C 83 % 16.54 C
1859 27-07-2016 10:50:00 19.7 C 84 % 16.92 C
1860 27-07-2016 10:55:00 19.8 C 83 % 16.83 C
1861 27-07-2016 11:00:00 19.9 C 81 % 16.54 C
1862 27-07-2016 11:05:00 20.1 C 84 % 17.31 C
1863 27-07-2016 11:10:00 20.1 C 83 % 17.12 C
1864 27-07-2016 11:15:00 20.1 C 80 % 16.54 C
1865 27-07-2016 11:20:00 20.2 C 78 % 16.24 C
1866 27-07-2016 11:25:00 20.3 C 79 % 16.54 C
1867 27-07-2016 11:30:00 20.6 C 78 % 16.63 C
1868 27-07-2016 11:35:00 20.9 C 76 % 16.51 C
1869 27-07-2016 11:40:00 21.2 C 76 % 16.8 C
1870 27-07-2016 11:45:00 21.3 C 76 % 16.9 C
1871 27-07-2016 11:50:00 21.4 C 78 % 17.4 C
1872 27-07-2016 11:55:00 21.4 C 77 % 17.2 C
1873 27-07-2016 12:00:00 21.4 C 79 % 17.61 C
1874 27-07-2016 12:05:00 21.5 C 76 % 17.09 C
1875 27-07-2016 12:10:00 21.7 C 74 % 16.86 C
Sensor: Nr:Datum:Temp:Feuchte:Taupunkt:
Aussen-T/F 1876 27-07-2016 12:15:00 21.8 C 72 % 16.53 C
1877 27-07-2016 12:20:00 21.9 C 72 % 16.62 C
1878 27-07-2016 12:25:00 22.2 C 72 % 16.91 C
1879 27-07-2016 12:30:00 22.3 C 73 % 17.23 C
1880 27-07-2016 12:35:00 22.4 C 71 % 16.88 C
1881 27-07-2016 12:40:00 22.6 C 72 % 17.3 C
1882 27-07-2016 12:45:00 22.6 C 73 % 17.51 C
1883 27-07-2016 12:50:00 22.4 C 71 % 16.88 C
1884 27-07-2016 12:55:00 22.4 C 74 % 17.54 C
1885 27-07-2016 13:00:00 22.5 C 73 % 17.42 C
1886 27-07-2016 13:05:00 22.6 C 70 % 16.85 C
1887 27-07-2016 13:10:00 22.7 C 77 % 18.46 C
1888 27-07-2016 13:15:00 22.8 C 76 % 18.35 C
1889 27-07-2016 13:20:00 22.9 C 68 % 16.68 C
1890 27-07-2016 13:25:00 23.2 C 69 % 17.2 C
1891 27-07-2016 13:30:00 23.3 C 68 % 17.06 C
1892 27-07-2016 13:35:00 23.4 C 64 % 16.2 C
1893 27-07-2016 13:40:00 23.4 C 65 % 16.45 C
1894 27-07-2016 13:45:00 23.4 C 61 % 15.45 C
1895 27-07-2016 13:50:00 23.5 C 60 % 15.29 C
1896 27-07-2016 13:55:00 23.6 C 62 % 15.89 C
1897 27-07-2016 14:00:00 23.6 C 61 % 15.64 C
1898 27-07-2016 14:05:00 23.7 C 66 % 16.97 C
1899 27-07-2016 14:10:00 23.8 C 59 % 15.31 C
1900 27-07-2016 14:15:00 24 C 58 % 15.23 C
Sensor: Nr:Datum:Temp:Feuchte:Taupunkt:
Aussen-T/F 1901 27-07-2016 14:20:00 24.1 C 56 % 14.78 C
1902 27-07-2016 14:25:00 24 C 59 % 15.5 C
1903 27-07-2016 14:30:00 23.9 C 58 % 15.14 C
1904 27-07-2016 14:35:00 23.9 C 60 % 15.66 C
1905 27-07-2016 14:40:00 23.8 C 60 % 15.57 C
1906 27-07-2016 14:45:00 23.7 C 61 % 15.73 C
1907 27-07-2016 14:50:00 23.7 C 59 % 15.21 C
1908 27-07-2016 14:55:00 23.8 C 57 % 14.77 C
1909 27-07-2016 15:00:00 24 C 58 % 15.23 C
1910 27-07-2016 15:05:00 24.1 C 64 % 16.86 C
1911 27-07-2016 15:10:00 24.1 C 58 % 15.32 C
1912 27-07-2016 15:15:00 24 C 64 % 16.77 C
1913 27-07-2016 15:20:00 23.8 C 61 % 15.83 C
1914 27-07-2016 15:25:00 23.7 C 65 % 16.73 C
1915 27-07-2016 15:30:00 23.7 C 57 % 14.68 C
1916 27-07-2016 15:35:00 23.8 C 69 % 17.77 C
1917 27-07-2016 15:40:00 23.8 C 69 % 17.77 C
1918 27-07-2016 15:45:00 23.7 C 62 % 15.99 C
1919 27-07-2016 15:50:00 23.7 C 66 % 16.97 C
1920 27-07-2016 15:55:00 23.8 C 68 % 17.54 C
1921 27-07-2016 16:00:00 23.7 C 65 % 16.73 C
1922 27-07-2016 16:05:00 23.6 C 69 % 17.58 C
1923 27-07-2016 16:10:00 23.5 C 71 % 17.94 C
1924 27-07-2016 16:15:00 23.3 C 62 % 15.61 C
1925 27-07-2016 16:20:00 23.6 C 63 % 16.14 C
Sensor: Nr:Datum:Temp:Feuchte:Taupunkt:
Aussen-T/F 1926 27-07-2016 16:25:00 24 C 59 % 15.5 C
1927 27-07-2016 16:30:00 24.2 C 56 % 14.87 C
1928 27-07-2016 16:35:00 24.1 C 56 % 14.78 C
1929 27-07-2016 16:40:00 24.1 C 58 % 15.32 C
1930 27-07-2016 16:45:00 24.1 C 67 % 17.59 C
1931 27-07-2016 16:50:00 24.1 C 64 % 16.86 C
1932 27-07-2016 16:55:00 24.2 C 59 % 15.68 C
1933 27-07-2016 17:00:00 24.3 C 55 % 14.68 C
1934 27-07-2016 17:05:00 24.6 C 60 % 16.32 C
1935 27-07-2016 17:10:00 24.8 C 63 % 17.28 C
1936 27-07-2016 17:15:00 25.1 C 65 % 18.06 C
1937 27-07-2016 17:20:00 25.2 C 67 % 18.63 C
1938 27-07-2016 17:25:00 25.4 C 63 % 17.84 C
1939 27-07-2016 17:30:00 25.8 C 61 % 17.71 C
1940 27-07-2016 17:35:00 25.9 C 52 % 15.29 C
1941 27-07-2016 17:40:00 26.4 C 54 % 16.34 C
1942 27-07-2016 17:45:00 27 C 47 % 14.73 C
1943 27-07-2016 17:50:00 27.3 C 46 % 14.67 C
1944 27-07-2016 17:55:00 27.3 C 54 % 17.18 C
1945 27-07-2016 18:00:00 26.9 C 47 % 14.64 C
1946 27-07-2016 18:05:00 26.7 C 55 % 16.91 C
1947 27-07-2016 18:10:00 26.3 C 49 % 14.74 C
1948 27-07-2016 18:15:00 25.9 C 60 % 17.54 C
1949 27-07-2016 18:20:00 25.5 C 55 % 15.8 C
1950 27-07-2016 18:25:00 25.1 C 52 % 14.55 C
Sensor: Nr:Datum:Temp:Feuchte:Taupunkt:
Aussen-T/F 1951 27-07-2016 18:30:00 24.9 C 63 % 17.37 C
1952 27-07-2016 18:35:00 24.7 C 66 % 17.92 C
1953 27-07-2016 18:40:00 24.3 C 66 % 17.54 C
1954 27-07-2016 18:45:00 23.9 C 66 % 17.16 C
1955 27-07-2016 18:50:00 23.6 C 68 % 17.35 C
1956 27-07-2016 18:55:00 23.4 C 66 % 16.69 C
1957 27-07-2016 19:00:00 23.4 C 70 % 17.62 C
1958 27-07-2016 19:05:00 23.8 C 62 % 16.08 C
1959 27-07-2016 19:10:00 24.1 C 68 % 17.82 C
1960 27-07-2016 19:15:00 23.8 C 68 % 17.54 C
1961 27-07-2016 19:20:00 23.4 C 69 % 17.39 C
1962 27-07-2016 19:25:00 23.1 C 71 % 17.55 C
1963 27-07-2016 19:30:00 22.6 C 71 % 17.07 C
1964 27-07-2016 19:35:00 22.3 C 71 % 16.79 C
1965 27-07-2016 19:40:00 22.2 C 72 % 16.91 C
1966 27-07-2016 19:45:00 22 C 73 % 16.94 C
1967 27-07-2016 19:50:00 21.7 C 73 % 16.65 C
1968 27-07-2016 19:55:00 21.4 C 73 % 16.36 C
1969 27-07-2016 20:00:00 21.3 C 75 % 16.69 C
1970 27-07-2016 20:05:00 21.1 C 75 % 16.5 C
1971 27-07-2016 20:10:00 20.9 C 76 % 16.51 C
1972 27-07-2016 20:15:00 20.8 C 77 % 16.62 C
1973 27-07-2016 20:20:00 20.7 C 79 % 16.93 C
1974 27-07-2016 20:25:00 20.6 C 77 % 16.43 C
1975 27-07-2016 20:30:00 20.4 C 78 % 16.44 C
Sensor: Nr:Datum:Temp:Feuchte:Taupunkt:
Aussen-T/F 1976 27-07-2016 20:35:00 20.3 C 77 % 16.14 C
1977 27-07-2016 20:40:00 20.3 C 77 % 16.14 C
1978 27-07-2016 20:45:00 20.3 C 77 % 16.14 C
1979 27-07-2016 20:50:00 20.2 C 78 % 16.24 C
1980 27-07-2016 20:55:00 20.2 C 78 % 16.24 C
1981 27-07-2016 21:00:00 20.1 C 76 % 15.74 C
1982 27-07-2016 21:05:00 20.1 C 76 % 15.74 C
1983 27-07-2016 21:10:00 20.1 C 77 % 15.94 C
1984 27-07-2016 21:15:00 20.1 C 77 % 15.94 C
1985 27-07-2016 21:20:00 20.1 C 77 % 15.94 C
1986 27-07-2016 21:25:00 20.1 C 77 % 15.94 C
1987 27-07-2016 21:30:00 20 C 78 % 16.05 C
1988 27-07-2016 21:35:00 20 C 79 % 16.25 C
1989 27-07-2016 21:40:00 20 C 80 % 16.44 C
1990 27-07-2016 21:45:00 19.9 C 79 % 16.15 C
1991 27-07-2016 21:50:00 19.8 C 79 % 16.05 C
1992 27-07-2016 21:55:00 19.8 C 79 % 16.05 C
1993 27-07-2016 22:00:00 19.7 C 80 % 16.15 C
1994 27-07-2016 22:05:00 19.7 C 81 % 16.35 C
1995 27-07-2016 22:10:00 19.7 C 81 % 16.35 C
1996 27-07-2016 22:15:00 19.6 C 82 % 16.44 C
1997 27-07-2016 22:20:00 19.6 C 82 % 16.44 C
1998 27-07-2016 22:25:00 19.5 C 81 % 16.15 C
1999 27-07-2016 22:30:00 19.4 C 82 % 16.25 C
2000 27-07-2016 22:35:00 19.4 C 83 % 16.44 C
Sensor: Nr:Datum:Temp:Feuchte:Taupunkt:
Aussen-T/F 2001 27-07-2016 22:40:00 19.4 C 83 % 16.44 C
2002 27-07-2016 22:45:00 19.4 C 84 % 16.63 C
2003 27-07-2016 22:50:00 19.4 C 84 % 16.63 C
2004 27-07-2016 22:55:00 19.3 C 84 % 16.53 C
2005 27-07-2016 23:00:00 19.3 C 83 % 16.34 C
2006 27-07-2016 23:05:00 19.3 C 82 % 16.15 C
2007 27-07-2016 23:10:00 19.3 C 83 % 16.34 C
2008 27-07-2016 23:15:00 19.3 C 83 % 16.34 C
2009 27-07-2016 23:20:00 19.3 C 84 % 16.53 C
2010 27-07-2016 23:25:00 19.3 C 84 % 16.53 C
2011 27-07-2016 23:30:00 19.2 C 84 % 16.43 C
2012 27-07-2016 23:35:00 19.2 C 84 % 16.43 C
2013 27-07-2016 23:40:00 19.1 C 84 % 16.33 C
2014 27-07-2016 23:45:00 19.1 C 84 % 16.33 C
2015 27-07-2016 23:50:00 19 C 84 % 16.24 C
2016 27-07-2016 23:55:00 18.9 C 84 % 16.14 C

Legende:
   Min
   Max


Maximal/Minimal-Werte vom 21.07.2016 - 27.07.2016

Sensor Min Max Avg
Temp
(Aussen-T/F)
15.4 °C
27-07-2016  06:10:00
29.6 °C
22-07-2016  16:20:00
20.9 °C
Feuchte
(Aussen-T/F)
46 %
27-07-2016  17:50:00
97 %
22-07-2016  02:10:00
85.92 %
Taupunkt
(Aussen-T/F)
14.55 C
27-07-2016  18:25:00
24.14 C
22-07-2016  16:05:00
18.28 C

Die Daten stammen von einer Davis Vantage Pro 2 Wetter-Station und werden unter Linux mit der Software wview2wettercgi und aufbereitet. Alle Angaben erfolgen ohne Gewähr für ihre Vollständigkeit oder Richtigkeit.
Kontakt: Rainer Krienke krienke@uni-koblenz.de . Meine Webseiten an der Uni Koblenz oder privat.
Version: $Revision: 0.78 $